Wetterdaten: Montag, 09.05.2011
Datum Zeit Temp. Innen Temp. Aussen UV X Diff Temp. Feuchte Inne Feuchte Auss Sonnenschein Luftdruck Regen ab 0,1 Wind Sonnenschein T Regendauer Windben
09.05.2011 00:00 23,9 C 20,9 C 0,1 UV-I 0,0 C 39 % 35 % 0 % 1020,4 hPa 0,0 l/m 3,6 km/h (1 Bft) 0 min 0 min 3,2 km/h (1 Bft)
09.05.2011 00:05 23,8 C 20,8 C 0,1 UV-I 0,0 C 39 % 36 % 0 % 1019,9 hPa 0,0 l/m 4,0 km/h (1 Bft) 0 min 0 min 5,5 km/h (1 Bft)
09.05.2011 00:10 23,8 C 20,7 C 0,1 UV-I 0,0 C 38 % 36 % 0 % 1019,9 hPa 0,0 l/m 3,6 km/h (1 Bft) 0 min 0 min 4,5 km/h (1 Bft)
09.05.2011 00:15 23,8 C 20,5 C 0,1 UV-I 0,0 C 39 % 36 % 0 % 1019,9 hPa 0,0 l/m 1,6 km/h (1 Bft) 0 min 0 min 0,0 km/h (0 Bft)
09.05.2011 00:20 23,8 C 20,4 C 0,1 UV-I 0,0 C 39 % 37 % 0 % 1019,9 hPa 0,0 l/m 0,4 km/h (0 Bft) 0 min 0 min 0,0 km/h (0 Bft)
09.05.2011 00:25 23,8 C 20,2 C 0,1 UV-I 0,0 C 39 % 37 % 0 % 1019,9 hPa 0,0 l/m 0,0 km/h (0 Bft) 0 min 0 min 0,0 km/h (0 Bft)
09.05.2011 00:30 23,7 C 20,1 C 0,1 UV-I 0,0 C 39 % 37 % 0 % 1019,9 hPa 0,0 l/m 0,4 km/h (0 Bft) 0 min 0 min 0,0 km/h (0 Bft)
09.05.2011 00:35 23,7 C 20,0 C 0,1 UV-I 0,0 C 39 % 38 % 0 % 1019,9 hPa 0,0 l/m 0,0 km/h (0 Bft) 0 min 0 min 0,0 km/h (0 Bft)
09.05.2011 00:40 23,7 C 19,8 C 0,1 UV-I 0,0 C 39 % 38 % 0 % 1019,9 hPa 0,0 l/m 0,0 km/h (0 Bft) 0 min 0 min 0,0 km/h (0 Bft)
09.05.2011 00:45 23,6 C 19,7 C 0,1 UV-I 0,0 C 39 % 39 % 0 % 1020,2 hPa 0,0 l/m 0,0 km/h (0 Bft) 0 min 0 min 0,0 km/h (0 Bft)
09.05.2011 00:50 23,6 C 19,4 C 0,1 UV-I 0,0 C 39 % 41 % 0 % 1020,2 hPa 0,0 l/m 0,0 km/h (0 Bft) 0 min 0 min 0,0 km/h (0 Bft)
09.05.2011 00:55 23,6 C 19,2 C 0,1 UV-I 0,0 C 39 % 42 % 0 % 1020,2 hPa 0,0 l/m 0,0 km/h (0 Bft) 0 min 0 min 0,0 km/h (0 Bft)
09.05.2011 01:00 23,6 C 19,1 C 0,0 UV-I 0,0 C 39 % 42 % 0 % 1020,2 hPa 0,0 l/m 0,0 km/h (0 Bft) 0 min 0 min 0,0 km/h (0 Bft)
09.05.2011 01:05 23,6 C 18,7 C 0,0 UV-I 0,0 C 39 % 44 % 0 % 1020,2 hPa 0,0 l/m 0,0 km/h (0 Bft) 0 min 0 min 0,0 km/h (0 Bft)
09.05.2011 01:10 23,6 C 18,5 C 0,0 UV-I 0,0 C 39 % 44 % 0 % 1020,2 hPa 0,0 l/m 0,0 km/h (0 Bft) 0 min 0 min 0,0 km/h (0 Bft)
09.05.2011 01:15 23,6 C 18,3 C 0,0 UV-I 0,0 C 39 % 45 % 0 % 1020,2 hPa 0,0 l/m 0,0 km/h (0 Bft) 0 min 0 min 0,0 km/h (0 Bft)
09.05.2011 01:20 23,5 C 18,2 C 0,0 UV-I 0,0 C 39 % 45 % 0 % 1020,2 hPa 0,0 l/m 0,0 km/h (0 Bft) 0 min 0 min 0,0 km/h (0 Bft)
09.05.2011 01:25 23,5 C 18,1 C 0,0 UV-I 0,0 C 39 % 45 % 0 % 1020,3 hPa 0,0 l/m 0,0 km/h (0 Bft) 0 min 0 min 0,0 km/h (0 Bft)
09.05.2011 01:30 23,5 C 18,1 C 0,0 UV-I 0,0 C 40 % 45 % 0 % 1020,3 hPa 0,0 l/m 1,2 km/h (1 Bft) 0 min 0 min 0,0 km/h (0 Bft)
09.05.2011 01:35 23,5 C 18,1 C 0,0 UV-I 0,0 C 40 % 45 % 0 % 1020,3 hPa 0,0 l/m 1,2 km/h (1 Bft) 0 min 0 min 0,0 km/h (0 Bft)
09.05.2011 01:40 23,4 C 18,0 C 0,0 UV-I 0,0 C 40 % 45 % 0 % 1020,3 hPa 0,0 l/m 0,4 km/h (0 Bft) 0 min 0 min 0,0 km/h (0 Bft)
09.05.2011 01:45 23,4 C 18,0 C 0,0 UV-I 0,0 C 40 % 45 % 0 % 1020,4 hPa 0,0 l/m 0,0 km/h (0 Bft) 0 min 0 min 0,0 km/h (0 Bft)
09.05.2011 01:50 23,4 C 17,9 C 0,0 UV-I 0,0 C 40 % 45 % 0 % 1020,4 hPa 0,0 l/m 0,0 km/h (0 Bft) 0 min 0 min 0,0 km/h (0 Bft)
09.05.2011 01:55 23,4 C 17,8 C 0,0 UV-I 0,0 C 40 % 45 % 0 % 1020,4 hPa 0,0 l/m 0,0 km/h (0 Bft) 0 min 0 min 0,0 km/h (0 Bft)
09.05.2011 02:00 23,4 C 17,9 C 0,0 UV-I 0,0 C 40 % 46 % 0 % 1020,4 hPa 0,0 l/m 0,0 km/h (0 Bft) 0 min 0 min 0,0 km/h (0 Bft)
09.05.2011 02:05 23,2 C 17,6 C 0,0 UV-I 0,0 C 40 % 46 % 0 % 1020,3 hPa 0,0 l/m 0,0 km/h (0 Bft) 0 min 0 min 0,0 km/h (0 Bft)
09.05.2011 02:10 23,2 C 17,7 C 0,0 UV-I 0,0 C 40 % 46 % 0 % 1020,3 hPa 0,0 l/m 0,0 km/h (0 Bft) 0 min 0 min 3,2 km/h (1 Bft)
09.05.2011 02:15 23,3 C 17,5 C 0,0 UV-I 0,0 C 40 % 46 % 0 % 1020,3 hPa 0,0 l/m 0,0 km/h (0 Bft) 0 min 0 min 0,0 km/h (0 Bft)
09.05.2011 02:20 23,2 C 17,5 C 0,0 UV-I 0,0 C 40 % 47 % 0 % 1020,3 hPa 0,0 l/m 0,0 km/h (0 Bft) 0 min 0 min 0,0 km/h (0 Bft)
09.05.2011 02:25 23,2 C 17,3 C 0,0 UV-I 0,0 C 40 % 47 % 0 % 1020,2 hPa 0,0 l/m 0,0 km/h (0 Bft) 0 min 0 min 0,0 km/h (0 Bft)
09.05.2011 02:30 23,2 C 17,2 C 0,0 UV-I 0,0 C 40 % 47 % 0 % 1020,2 hPa 0,0 l/m 0,0 km/h (0 Bft) 0 min 0 min 0,0 km/h (0 Bft)
09.05.2011 02:35 23,2 C 17,2 C 0,0 UV-I 0,0 C 40 % 47 % 0 % 1020,2 hPa 0,0 l/m 0,0 km/h (0 Bft) 0 min 0 min 0,0 km/h (0 Bft)
09.05.2011 02:40 23,2 C 17,2 C 0,0 UV-I 0,0 C 40 % 47 % 0 % 1020,2 hPa 0,0 l/m 0,0 km/h (0 Bft) 0 min 0 min 3,9 km/h (1 Bft)
09.05.2011 02:45 23,2 C 17,1 C 0,0 UV-I 0,0 C 40 % 47 % 0 % 1020,6 hPa 0,0 l/m 0,4 km/h (0 Bft) 0 min 0 min 4,5 km/h (1 Bft)
09.05.2011 02:50 23,2 C 17,1 C 0,0 UV-I 0,0 C 40 % 47 % 0 % 1020,6 hPa 0,0 l/m 0,8 km/h (0 Bft) 0 min 0 min 0,0 km/h (0 Bft)
09.05.2011 02:55 23,1 C 17,1 C 0,0 UV-I 0,0 C 40 % 47 % 0 % 1020,6 hPa 0,0 l/m 0,8 km/h (0 Bft) 0 min 0 min 0,0 km/h (0 Bft)
09.05.2011 03:00 23,1 C 17,1 C 0,0 UV-I 0,0 C 41 % 47 % 0 % 1020,6 hPa 0,0 l/m 0,8 km/h (0 Bft) 0 min 0 min 0,0 km/h (0 Bft)
09.05.2011 03:05 23,1 C 17,2 C 0,0 UV-I 0,0 C 40 % 46 % 0 % 1020,6 hPa 0,0 l/m 1,2 km/h (1 Bft) 0 min 0 min 3,9 km/h (1 Bft)
09.05.2011 03:10 23,0 C 17,3 C 0,0 UV-I 0,0 C 41 % 46 % 0 % 1020,6 hPa 0,0 l/m 1,6 km/h (1 Bft) 0 min 0 min 0,0 km/h (0 Bft)
09.05.2011 03:15 23,0 C 17,5 C 0,0 UV-I 0,0 C 41 % 45 % 0 % 1020,6 hPa 0,0 l/m 4,0 km/h (1 Bft) 0 min 0 min 8,0 km/h (2 Bft)
09.05.2011 03:20 23,0 C 17,7 C 0,0 UV-I 0,0 C 41 % 43 % 0 % 1020,6 hPa 0,0 l/m 5,2 km/h (1 Bft) 0 min 0 min 3,2 km/h (1 Bft)
09.05.2011 03:25 23,0 C 17,9 C 0,0 UV-I 0,0 C 41 % 43 % 0 % 1020,7 hPa 0,0 l/m 7,2 km/h (2 Bft) 0 min 0 min 10,3 km/h (2 Bft)
09.05.2011 03:30 23,0 C 17,9 C 0,0 UV-I 0,0 C 40 % 42 % 0 % 1020,7 hPa 0,0 l/m 7,2 km/h (2 Bft) 0 min 0 min 10,0 km/h (2 Bft)
09.05.2011 03:35 23,0 C 17,9 C 0,0 UV-I 0,0 C 40 % 42 % 0 % 1020,7 hPa 0,0 l/m 7,2 km/h (2 Bft) 0 min 0 min 10,6 km/h (2 Bft)
09.05.2011 03:40 23,0 C 17,9 C 0,0 UV-I 0,0 C 40 % 42 % 0 % 1020,7 hPa 0,0 l/m 8,0 km/h (2 Bft) 0 min 0 min 8,4 km/h (2 Bft)
09.05.2011 03:45 22,9 C 17,9 C 0,0 UV-I 0,0 C 40 % 42 % 0 % 1020,7 hPa 0,0 l/m 7,6 km/h (2 Bft) 0 min 0 min 10,9 km/h (2 Bft)
09.05.2011 03:50 22,9 C 17,9 C 0,0 UV-I 0,0 C 40 % 42 % 0 % 1020,7 hPa 0,0 l/m 7,6 km/h (2 Bft) 0 min 0 min 9,0 km/h (2 Bft)
09.05.2011 03:55 22,9 C 17,8 C 0,0 UV-I 0,0 C 40 % 42 % 0 % 1020,7 hPa 0,0 l/m 7,2 km/h (2 Bft) 0 min 0 min 18,0 km/h (3 Bft)
09.05.2011 04:00 22,9 C 17,9 C 0,0 UV-I 0,0 C 40 % 42 % 0 % 1020,7 hPa 0,0 l/m 6,4 km/h (2 Bft) 0 min 0 min 4,5 km/h (1 Bft)
09.05.2011 04:05 22,9 C 17,7 C 0,0 UV-I 0,0 C 40 % 43 % 0 % 1020,9 hPa 0,0 l/m 8,4 km/h (2 Bft) 0 min 0 min 9,7 km/h (2 Bft)
09.05.2011 04:10 22,9 C 17,6 C 0,0 UV-I 0,0 C 40 % 43 % 0 % 1020,9 hPa 0,0 l/m 8,4 km/h (2 Bft) 0 min 0 min 11,3 km/h (2 Bft)
09.05.2011 04:15 22,8 C 17,7 C 0,0 UV-I 0,0 C 40 % 44 % 0 % 1020,9 hPa 0,0 l/m 8,4 km/h (2 Bft) 0 min 0 min 11,6 km/h (2 Bft)
09.05.2011 04:20 22,9 C 17,7 C 0,0 UV-I 0,0 C 40 % 45 % 0 % 1020,9 hPa 0,0 l/m 7,2 km/h (2 Bft) 0 min 0 min 9,7 km/h (2 Bft)
09.05.2011 04:25 22,8 C 17,7 C 0,0 UV-I 0,0 C 40 % 45 % 0 % 1020,8 hPa 0,0 l/m 6,8 km/h (2 Bft) 0 min 0 min 0,0 km/h (0 Bft)
09.05.2011 04:30 22,8 C 17,7 C 0,0 UV-I 0,0 C 40 % 45 % 0 % 1020,8 hPa 0,0 l/m 8,0 km/h (2 Bft) 0 min 0 min 9,0 km/h (2 Bft)
09.05.2011 04:35 22,8 C 17,8 C 0,0 UV-I 0,0 C 40 % 45 % 0 % 1020,8 hPa 0,0 l/m 8,4 km/h (2 Bft) 0 min 0 min 8,0 km/h (2 Bft)
09.05.2011 04:40 22,8 C 17,9 C 0,1 UV-I 0,0 C 40 % 46 % 0 % 1020,8 hPa 0,0 l/m 8,4 km/h (2 Bft) 0 min 0 min 14,2 km/h (3 Bft)
09.05.2011 04:45 22,8 C 17,9 C 0,1 UV-I 0,0 C 40 % 46 % 0 % 1021,0 hPa 0,0 l/m 8,0 km/h (2 Bft) 0 min 0 min 10,9 km/h (2 Bft)
09.05.2011 04:50 22,8 C 17,9 C 0,0 UV-I 0,0 C 40 % 46 % 0 % 1021,0 hPa 0,0 l/m 7,6 km/h (2 Bft) 0 min 0 min 7,7 km/h (2 Bft)
09.05.2011 04:55 22,8 C 18,0 C 0,0 UV-I 0,0 C 40 % 47 % 0 % 1021,0 hPa 0,0 l/m 7,6 km/h (2 Bft) 0 min 0 min 10,6 km/h (2 Bft)
09.05.2011 05:00 22,8 C 18,1 C 0,0 UV-I 0,0 C 40 % 47 % 0 % 1021,0 hPa 0,0 l/m 7,6 km/h (2 Bft) 0 min 0 min 5,5 km/h (1 Bft)
09.05.2011 05:05 22,7 C 18,1 C 0,1 UV-I 0,0 C 40 % 47 % 0 % 1021,2 hPa 0,0 l/m 8,8 km/h (2 Bft) 0 min 0 min 5,8 km/h (2 Bft)
09.05.2011 05:11 22,8 C 18,1 C 0,1 UV-I 0,0 C 40 % 47 % 0 % 1021,2 hPa 0,0 l/m 8,4 km/h (2 Bft) 0 min 0 min 4,5 km/h (1 Bft)
09.05.2011 05:12 22,8 C 18,1 C 0,1 UV-I 0,0 C 40 % 47 % 0 % 1021,2 hPa 0,0 l/m 8,4 km/h (2 Bft) 0 min 0 min 4,5 km/h (1 Bft)
09.05.2011 05:14 22,8 C 18,1 C 0,1 UV-I 0,0 C 40 % 48 % 0 % 1021,2 hPa 0,0 l/m 8,4 km/h (2 Bft) 0 min 0 min 7,4 km/h (2 Bft)
09.05.2011 05:16 22,7 C 18,2 C 0,1 UV-I 0,0 C 40 % 48 % 0 % 1021,2 hPa 0,0 l/m 8,8 km/h (2 Bft) 0 min 0 min 7,4 km/h (2 Bft)
09.05.2011 05:18 22,8 C 18,2 C 0,1 UV-I 0,0 C 40 % 48 % 0 % 1021,2 hPa 0,0 l/m 8,8 km/h (2 Bft) 0 min 0 min 10,9 km/h (2 Bft)
09.05.2011 05:20 22,8 C 18,3 C 0,1 UV-I 0,0 C 40 % 48 % 0 % 1021,2 hPa 0,0 l/m 8,8 km/h (2 Bft) 0 min 0 min 5,5 km/h (1 Bft)
09.05.2011 05:22 22,8 C 18,3 C 0,1 UV-I 0,0 C 40 % 48 % 0 % 1021,2 hPa 0,0 l/m 9,2 km/h (2 Bft) 0 min 0 min 20,6 km/h (4 Bft)
09.05.2011 05:24 22,8 C 18,2 C 0,1 UV-I 0,0 C 40 % 48 % 0 % 1021,2 hPa 0,0 l/m 9,6 km/h (2 Bft) 0 min 0 min 6,4 km/h (2 Bft)
09.05.2011 05:26 22,8 C 18,2 C 0,1 UV-I 0,0 C 40 % 48 % 0 % 1021,4 hPa 0,0 l/m 9,2 km/h (2 Bft) 0 min 0 min 20,6 km/h (4 Bft)
09.05.2011 05:28 22,8 C 18,3 C 0,1 UV-I 0,0 C 40 % 48 % 0 % 1021,4 hPa 0,0 l/m 9,6 km/h (2 Bft) 0 min 0 min 9,0 km/h (2 Bft)
09.05.2011 05:30 22,8 C 18,3 C 0,1 UV-I 0,0 C 40 % 48 % 0 % 1021,4 hPa 0,0 l/m 10,8 km/h (2 Bft) 0 min 0 min 14,2 km/h (3 Bft)
09.05.2011 05:32 22,8 C 18,3 C 0,1 UV-I 0,0 C 40 % 48 % 0 % 1021,4 hPa 0,0 l/m 10,4 km/h (2 Bft) 0 min 0 min 5,5 km/h (1 Bft)
09.05.2011 05:34 22,8 C 18,3 C 0,1 UV-I 0,0 C 40 % 48 % 0 % 1021,4 hPa 0,0 l/m 9,2 km/h (2 Bft) 0 min 0 min 6,4 km/h (2 Bft)
09.05.2011 05:36 22,8 C 18,3 C 0,1 UV-I 0,0 C 40 % 48 % 0 % 1021,4 hPa 0,0 l/m 9,2 km/h (2 Bft) 0 min 0 min 16,4 km/h (3 Bft)
09.05.2011 05:38 22,8 C 18,3 C 0,1 UV-I 0,0 C 40 % 48 % 0 % 1021,4 hPa 0,0 l/m 8,4 km/h (2 Bft) 0 min 0 min 10,6 km/h (2 Bft)
09.05.2011 05:40 22,8 C 18,3 C 0,1 UV-I 0,0 C 40 % 48 % 0 % 1021,4 hPa 0,0 l/m 8,4 km/h (2 Bft) 0 min 0 min 5,8 km/h (2 Bft)
09.05.2011 05:42 22,8 C 18,3 C 0,1 UV-I 0,0 C 40 % 48 % 0 % 1021,4 hPa 0,0 l/m 7,2 km/h (2 Bft) 0 min 0 min 10,9 km/h (2 Bft)
09.05.2011 05:44 22,8 C 18,3 C 0,1 UV-I 0,0 C 40 % 49 % 0 % 1021,4 hPa 0,0 l/m 8,8 km/h (2 Bft) 0 min 0 min 18,0 km/h (3 Bft)
09.05.2011 05:46 22,8 C 18,3 C 0,1 UV-I 0,0 C 40 % 49 % 0 % 1021,4 hPa 0,0 l/m 9,6 km/h (2 Bft) 0 min 0 min 18,0 km/h (3 Bft)
09.05.2011 05:48 22,8 C 18,3 C 0,1 UV-I 0,0 C 40 % 49 % 0 % 1021,4 hPa 0,0 l/m 9,2 km/h (2 Bft) 0 min 0 min 5,5 km/h (1 Bft)
09.05.2011 05:50 22,8 C 18,2 C 0,1 UV-I 0,0 C 40 % 49 % 0 % 1021,4 hPa 0,0 l/m 10,0 km/h (2 Bft) 0 min 0 min 14,2 km/h (3 Bft)
09.05.2011 05:52 22,8 C 18,2 C 0,1 UV-I 0,0 C 40 % 49 % 0 % 1021,4 hPa 0,0 l/m 9,6 km/h (2 Bft) 0 min 0 min 4,5 km/h (1 Bft)
09.05.2011 05:54 22,8 C 18,3 C 0,1 UV-I 0,0 C 40 % 49 % 0 % 1021,4 hPa 0,0 l/m 8,4 km/h (2 Bft) 0 min 0 min 5,1 km/h (1 Bft)
09.05.2011 05:56 22,8 C 18,2 C 0,1 UV-I 0,0 C 40 % 49 % 0 % 1021,4 hPa 0,0 l/m 7,6 km/h (2 Bft) 0 min 0 min 9,3 km/h (2 Bft)
09.05.2011 05:58 22,8 C 18,2 C 0,1 UV-I 0,0 C 40 % 49 % 0 % 1021,4 hPa 0,0 l/m 7,2 km/h (2 Bft) 0 min 0 min 5,5 km/h (1 Bft)
09.05.2011 06:00 22,8 C 18,1 C 0,1 UV-I 0,0 C 40 % 49 % 0 % 1021,4 hPa 0,0 l/m 7,6 km/h (2 Bft) 0 min 0 min 14,2 km/h (3 Bft)
09.05.2011 06:02 22,8 C 18,1 C 0,1 UV-I 0,0 C 41 % 49 % 0 % 1021,4 hPa 0,0 l/m 7,2 km/h (2 Bft) 0 min 0 min 6,8 km/h (2 Bft)
09.05.2011 06:04 22,8 C 18,1 C 0,1 UV-I 0,0 C 40 % 49 % 0 % 1021,4 hPa 0,0 l/m 7,2 km/h (2 Bft) 0 min 0 min 6,8 km/h (2 Bft)
09.05.2011 06:06 22,8 C 18,2 C 0,1 UV-I 0,0 C 41 % 49 % 0 % 1021,6 hPa 0,0 l/m 8,4 km/h (2 Bft) 0 min 0 min 7,7 km/h (2 Bft)
09.05.2011 06:08 22,8 C 18,2 C 0,1 UV-I 0,0 C 40 % 49 % 0 % 1021,6 hPa 0,0 l/m 8,4 km/h (2 Bft) 0 min 0 min 6,1 km/h (2 Bft)
09.05.2011 06:10 22,8 C 18,1 C 0,1 UV-I 0,0 C 41 % 49 % 0 % 1021,6 hPa 0,0 l/m 8,8 km/h (2 Bft) 0 min 0 min 16,1 km/h (3 Bft)
09.05.2011 06:12 22,8 C 18,2 C 0,1 UV-I 0,0 C 40 % 49 % 0 % 1021,6 hPa 0,0 l/m 9,2 km/h (2 Bft) 0 min 0 min 10,9 km/h (2 Bft)
09.05.2011 06:14 22,8 C 18,2 C 0,1 UV-I 0,0 C 41 % 50 % 0 % 1021,6 hPa 0,0 l/m 9,2 km/h (2 Bft) 0 min 0 min 8,7 km/h (2 Bft)
09.05.2011 06:16 22,8 C 18,1 C 0,1 UV-I 0,0 C 41 % 50 % 0 % 1021,6 hPa 0,0 l/m 9,2 km/h (2 Bft) 0 min 0 min 10,0 km/h (2 Bft)
09.05.2011 06:18 22,8 C 18,2 C 0,2 UV-I 0,0 C 41 % 50 % 0 % 1021,6 hPa 0,0 l/m 10,0 km/h (2 Bft) 0 min 0 min 15,4 km/h (3 Bft)
09.05.2011 06:20 22,8 C 18,2 C 0,2 UV-I 0,0 C 41 % 50 % 0 % 1021,6 hPa 0,0 l/m 11,2 km/h (2 Bft) 0 min 0 min 11,6 km/h (2 Bft)
09.05.2011 06:22 22,8 C 18,1 C 0,2 UV-I 0,0 C 41 % 50 % 0 % 1021,6 hPa 0,0 l/m 11,6 km/h (2 Bft) 0 min 0 min 26,4 km/h (4 Bft)
09.05.2011 06:24 22,8 C 18,2 C 0,2 UV-I 0,0 C 41 % 50 % 0 % 1021,6 hPa 0,0 l/m 11,6 km/h (2 Bft) 0 min 0 min 13,2 km/h (3 Bft)
09.05.2011 06:26 22,8 C 18,3 C 0,2 UV-I 0,0 C 41 % 50 % 0 % 1021,6 hPa 0,0 l/m 12,0 km/h (2 Bft) 0 min 0 min 26,4 km/h (4 Bft)
09.05.2011 06:28 22,8 C 18,2 C 0,2 UV-I 0,0 C 41 % 49 % 0 % 1021,6 hPa 0,0 l/m 11,6 km/h (2 Bft) 0 min 0 min 5,8 km/h (2 Bft)
09.05.2011 06:30 22,8 C 18,3 C 0,2 UV-I 0,0 C 41 % 50 % 0 % 1021,6 hPa 0,0 l/m 11,2 km/h (2 Bft) 0 min 0 min 9,0 km/h (2 Bft)
09.05.2011 06:32 22,8 C 18,2 C 0,2 UV-I 0,0 C 41 % 50 % 0 % 1021,6 hPa 0,0 l/m 10,4 km/h (2 Bft) 0 min 0 min 7,7 km/h (2 Bft)
09.05.2011 06:34 22,8 C 18,2 C 0,2 UV-I 0,0 C 41 % 49 % 0 % 1021,6 hPa 0,0 l/m 9,6 km/h (2 Bft) 0 min 0 min 10,3 km/h (2 Bft)
09.05.2011 06:36 22,8 C 18,2 C 0,2 UV-I 0,0 C 41 % 49 % 0 % 1021,6 hPa 0,0 l/m 11,2 km/h (2 Bft) 0 min 0 min 36,7 km/h (5 Bft)
09.05.2011 06:38 22,8 C 18,2 C 0,2 UV-I 0,0 C 41 % 49 % 0 % 1021,6 hPa 0,0 l/m 10,8 km/h (2 Bft) 0 min 0 min 19,0 km/h (3 Bft)
09.05.2011 06:40 22,8 C 18,3 C 0,2 UV-I 0,0 C 41 % 49 % 0 % 1021,6 hPa 0,0 l/m 10,4 km/h (2 Bft) 0 min 0 min 5,1 km/h (1 Bft)
09.05.2011 06:42 22,8 C 18,2 C 0,2 UV-I 0,0 C 41 % 49 % 0 % 1021,6 hPa 0,0 l/m 10,8 km/h (2 Bft) 0 min 0 min 9,7 km/h (2 Bft)
09.05.2011 06:44 22,8 C 18,3 C 0,2 UV-I 0,0 C 41 % 50 % 0 % 1021,6 hPa 0,0 l/m 10,8 km/h (2 Bft) 0 min 0 min 6,4 km/h (2 Bft)
09.05.2011 06:46 22,8 C 18,3 C 0,2 UV-I 0,0 C 41 % 49 % 0 % 1021,8 hPa 0,0 l/m 10,0 km/h (2 Bft) 0 min 0 min 10,9 km/h (2 Bft)
09.05.2011 06:48 22,8 C 18,2 C 0,3 UV-I 0,0 C 41 % 49 % 0 % 1021,8 hPa 0,0 l/m 10,0 km/h (2 Bft) 0 min 0 min 20,3 km/h (4 Bft)
09.05.2011 06:50 22,8 C 18,3 C 0,3 UV-I 0,0 C 41 % 49 % 0 % 1021,8 hPa 0,0 l/m 10,0 km/h (2 Bft) 0 min 0 min 5,8 km/h (2 Bft)
09.05.2011 06:52 22,8 C 18,3 C 0,3 UV-I 0,0 C 41 % 49 % 0 % 1021,8 hPa 0,0 l/m 10,4 km/h (2 Bft) 0 min 0 min 7,7 km/h (2 Bft)
09.05.2011 06:54 22,8 C 18,2 C 0,3 UV-I 0,0 C 41 % 49 % 0 % 1021,8 hPa 0,0 l/m 10,4 km/h (2 Bft) 0 min 0 min 7,4 km/h (2 Bft)
09.05.2011 06:56 22,8 C 18,3 C 0,3 UV-I 0,0 C 41 % 49 % 0 % 1021,8 hPa 0,0 l/m 10,8 km/h (2 Bft) 0 min 0 min 17,7 km/h (3 Bft)
09.05.2011 06:58 22,8 C 18,3 C 0,3 UV-I 0,0 C 41 % 49 % 0 % 1021,8 hPa 0,0 l/m 10,4 km/h (2 Bft) 0 min 0 min 8,0 km/h (2 Bft)
09.05.2011 07:00 22,8 C 18,3 C 0,3 UV-I 0,0 C 41 % 49 % 0 % 1021,8 hPa 0,0 l/m 10,4 km/h (2 Bft) 0 min 0 min 5,1 km/h (1 Bft)
09.05.2011 07:02 22,8 C 18,3 C 0,3 UV-I 0,0 C 41 % 49 % 0 % 1021,8 hPa 0,0 l/m 10,0 km/h (2 Bft) 0 min 0 min 15,8 km/h (3 Bft)
09.05.2011 07:04 22,7 C 18,3 C 0,3 UV-I 0,0 C 41 % 49 % 0 % 1021,8 hPa 0,0 l/m 9,6 km/h (2 Bft) 0 min 0 min 4,5 km/h (1 Bft)
09.05.2011 07:06 22,7 C 18,3 C 0,3 UV-I 0,0 C 41 % 49 % 0 % 1021,9 hPa 0,0 l/m 8,8 km/h (2 Bft) 0 min 0 min 8,4 km/h (2 Bft)
09.05.2011 07:08 22,7 C 18,3 C 0,4 UV-I 0,0 C 41 % 49 % 0 % 1021,9 hPa 0,0 l/m 8,8 km/h (2 Bft) 0 min 0 min 10,3 km/h (2 Bft)
09.05.2011 07:10 22,7 C 18,3 C 0,4 UV-I 0,0 C 41 % 50 % 0 % 1021,9 hPa 0,0 l/m 8,4 km/h (2 Bft) 0 min 0 min 7,4 km/h (2 Bft)
09.05.2011 07:12 22,7 C 18,3 C 0,4 UV-I 0,0 C 41 % 50 % 0 % 1021,9 hPa 0,0 l/m 8,0 km/h (2 Bft) 0 min 0 min 9,7 km/h (2 Bft)
09.05.2011 07:14 22,7 C 18,3 C 0,4 UV-I 0,0 C 41 % 50 % 0 % 1021,9 hPa 0,0 l/m 7,2 km/h (2 Bft) 0 min 0 min 10,6 km/h (2 Bft)
09.05.2011 07:16 22,7 C 18,3 C 0,4 UV-I 0,0 C 41 % 50 % 0 % 1021,9 hPa 0,0 l/m 8,0 km/h (2 Bft) 0 min 0 min 11,3 km/h (2 Bft)
09.05.2011 07:18 22,8 C 18,3 C 0,5 UV-I 0,0 C 41 % 50 % 0 % 1021,9 hPa 0,0 l/m 8,0 km/h (2 Bft) 0 min 0 min 13,8 km/h (3 Bft)
09.05.2011 07:20 22,8 C 18,3 C 0,5 UV-I 0,0 C 41 % 50 % 0 % 1021,9 hPa 0,0 l/m 7,6 km/h (2 Bft) 0 min 0 min 7,7 km/h (2 Bft)
09.05.2011 07:22 22,8 C 18,2 C 0,5 UV-I 0,0 C 41 % 50 % 0 % 1021,9 hPa 0,0 l/m 8,0 km/h (2 Bft) 0 min 0 min 5,8 km/h (2 Bft)
09.05.2011 07:24 22,8 C 18,3 C 0,5 UV-I 0,0 C 41 % 50 % 0 % 1021,9 hPa 0,0 l/m 8,0 km/h (2 Bft) 0 min 0 min 6,4 km/h (2 Bft)
09.05.2011 07:26 22,8 C 18,3 C 0,5 UV-I 0,0 C 41 % 50 % 0 % 1022,3 hPa 0,0 l/m 8,8 km/h (2 Bft) 0 min 0 min 8,7 km/h (2 Bft)
09.05.2011 07:28 22,8 C 18,3 C 0,6 UV-I 0,0 C 41 % 50 % 0 % 1022,3 hPa 0,0 l/m 8,0 km/h (2 Bft) 0 min 0 min 7,1 km/h (2 Bft)
09.05.2011 07:30 22,8 C 18,2 C 0,6 UV-I 0,0 C 41 % 50 % 0 % 1022,3 hPa 0,0 l/m 8,4 km/h (2 Bft) 0 min 0 min 13,5 km/h (3 Bft)
09.05.2011 07:32 22,8 C 18,3 C 0,7 UV-I 0,0 C 41 % 50 % 0 % 1022,3 hPa 0,0 l/m 9,2 km/h (2 Bft) 0 min 0 min 11,9 km/h (2 Bft)
09.05.2011 07:34 22,8 C 18,3 C 0,7 UV-I 0,0 C 41 % 50 % 0 % 1022,3 hPa 0,0 l/m 10,0 km/h (2 Bft) 0 min 0 min 11,9 km/h (2 Bft)
09.05.2011 07:36 22,8 C 18,2 C 0,7 UV-I 0,0 C 41 % 50 % 0 % 1022,3 hPa 0,0 l/m 10,0 km/h (2 Bft) 0 min 0 min 10,0 km/h (2 Bft)
09.05.2011 07:38 22,8 C 18,2 C 0,7 UV-I 0,0 C 41 % 50 % 0 % 1022,3 hPa 0,0 l/m 9,6 km/h (2 Bft) 0 min 0 min 6,4 km/h (2 Bft)
09.05.2011 07:40 22,8 C 18,2 C 0,7 UV-I 0,0 C 41 % 50 % 0 % 1022,3 hPa 0,0 l/m 10,4 km/h (2 Bft) 0 min 0 min 12,6 km/h (3 Bft)
09.05.2011 07:42 22,8 C 18,3 C 0,8 UV-I 0,0 C 41 % 50 % 0 % 1022,3 hPa 0,0 l/m 10,0 km/h (2 Bft) 0 min 0 min 5,8 km/h (2 Bft)
09.05.2011 07:44 22,8 C 18,3 C 0,8 UV-I 0,0 C 41 % 50 % 0 % 1022,3 hPa 0,0 l/m 10,0 km/h (2 Bft) 0 min 0 min 7,4 km/h (2 Bft)
09.05.2011 07:46 22,8 C 18,4 C 0,8 UV-I 0,0 C 41 % 50 % 0 % 1022,2 hPa 0,0 l/m 10,4 km/h (2 Bft) 0 min 0 min 6,4 km/h (2 Bft)
09.05.2011 07:48 22,8 C 18,4 C 0,9 UV-I 0,1 C 41 % 50 % 3 % 1022,2 hPa 0,0 l/m 10,8 km/h (2 Bft) 0 min 0 min 21,6 km/h (4 Bft)
09.05.2011 07:50 22,8 C 18,4 C 0,9 UV-I 0,1 C 41 % 50 % 3 % 1022,2 hPa 0,0 l/m 11,6 km/h (2 Bft) 0 min 0 min 8,4 km/h (2 Bft)
09.05.2011 07:52 22,8 C 18,4 C 0,9 UV-I 0,1 C 41 % 50 % 3 % 1022,2 hPa 0,0 l/m 11,2 km/h (2 Bft) 0 min 0 min 6,4 km/h (2 Bft)
09.05.2011 07:54 22,8 C 18,5 C 0,9 UV-I 0,1 C 41 % 50 % 3 % 1022,2 hPa 0,0 l/m 10,8 km/h (2 Bft) 0 min 0 min 16,1 km/h (3 Bft)
09.05.2011 07:56 22,8 C 18,5 C 0,9 UV-I 0,2 C 41 % 50 % 6 % 1022,2 hPa 0,0 l/m 11,2 km/h (2 Bft) 0 min 0 min 19,3 km/h (3 Bft)
09.05.2011 07:58 22,8 C 18,5 C 1,0 UV-I 0,2 C 41 % 50 % 6 % 1022,2 hPa 0,0 l/m 12,4 km/h (3 Bft) 0 min 0 min 23,5 km/h (4 Bft)
09.05.2011 08:00 22,8 C 18,5 C 1,0 UV-I 0,2 C 41 % 49 % 6 % 1022,2 hPa 0,0 l/m 12,4 km/h (3 Bft) 0 min 0 min 16,1 km/h (3 Bft)
09.05.2011 08:02 22,8 C 18,4 C 0,9 UV-I 0,3 C 41 % 50 % 9 % 1022,2 hPa 0,0 l/m 11,6 km/h (2 Bft) 0 min 0 min 6,1 km/h (2 Bft)
09.05.2011 08:04 22,8 C 18,4 C 0,9 UV-I 0,3 C 41 % 50 % 9 % 1022,2 hPa 0,0 l/m 12,0 km/h (2 Bft) 0 min 0 min 8,4 km/h (2 Bft)
09.05.2011 08:06 22,8 C 18,4 C 0,9 UV-I 0,3 C 41 % 50 % 9 % 1022,6 hPa 0,0 l/m 12,4 km/h (3 Bft) 0 min 0 min 20,9 km/h (4 Bft)
09.05.2011 08:08 22,8 C 18,4 C 0,8 UV-I 0,2 C 41 % 49 % 6 % 1022,6 hPa 0,0 l/m 12,0 km/h (2 Bft) 0 min 0 min 12,6 km/h (3 Bft)
09.05.2011 08:10 22,8 C 18,4 C 0,8 UV-I 0,2 C 41 % 50 % 6 % 1022,6 hPa 0,0 l/m 11,2 km/h (2 Bft) 0 min 0 min 16,4 km/h (3 Bft)
09.05.2011 08:12 22,8 C 18,4 C 0,8 UV-I 0,2 C 41 % 49 % 6 % 1022,6 hPa 0,0 l/m 12,4 km/h (3 Bft) 0 min 0 min 25,4 km/h (4 Bft)
09.05.2011 08:14 22,8 C 18,4 C 0,8 UV-I 0,1 C 41 % 49 % 3 % 1022,6 hPa 0,0 l/m 13,7 km/h (3 Bft) 0 min 0 min 28,6 km/h (4 Bft)
09.05.2011 08:16 22,8 C 18,4 C 0,8 UV-I 0,1 C 41 % 50 % 3 % 1022,6 hPa 0,0 l/m 14,1 km/h (3 Bft) 0 min 0 min 11,6 km/h (2 Bft)
09.05.2011 08:18 22,8 C 18,4 C 0,8 UV-I 0,1 C 41 % 50 % 3 % 1022,6 hPa 0,0 l/m 14,5 km/h (3 Bft) 0 min 0 min 11,9 km/h (2 Bft)
09.05.2011 08:20 22,8 C 18,5 C 0,8 UV-I 0,0 C 41 % 50 % 0 % 1022,6 hPa 0,0 l/m 15,3 km/h (3 Bft) 0 min 0 min 16,7 km/h (3 Bft)
09.05.2011 08:22 22,8 C 18,4 C 0,8 UV-I 0,1 C 41 % 50 % 3 % 1022,6 hPa 0,0 l/m 14,5 km/h (3 Bft) 0 min 0 min 19,3 km/h (3 Bft)
09.05.2011 08:24 22,8 C 18,4 C 0,8 UV-I 0,0 C 41 % 49 % 0 % 1022,6 hPa 0,0 l/m 14,9 km/h (3 Bft) 0 min 0 min 14,8 km/h (3 Bft)
09.05.2011 08:26 22,8 C 18,4 C 0,8 UV-I 0,0 C 41 % 50 % 0 % 1022,6 hPa 0,0 l/m 14,1 km/h (3 Bft) 0 min 0 min 18,7 km/h (3 Bft)
09.05.2011 08:28 22,8 C 18,4 C 0,8 UV-I 0,0 C 41 % 50 % 0 % 1022,6 hPa 0,0 l/m 12,4 km/h (3 Bft) 0 min 0 min 5,5 km/h (1 Bft)
09.05.2011 08:30 22,8 C 18,4 C 0,8 UV-I 0,0 C 41 % 50 % 0 % 1022,6 hPa 0,0 l/m 12,8 km/h (3 Bft) 0 min 0 min 8,7 km/h (2 Bft)
09.05.2011 08:32 22,8 C 18,3 C 0,8 UV-I 0,0 C 41 % 50 % 0 % 1022,6 hPa 0,0 l/m 11,6 km/h (2 Bft) 0 min 0 min 13,8 km/h (3 Bft)
09.05.2011 08:34 22,8 C 18,4 C 0,8 UV-I 0,0 C 41 % 50 % 0 % 1022,6 hPa 0,0 l/m 10,4 km/h (2 Bft) 0 min 0 min 11,6 km/h (2 Bft)
09.05.2011 08:36 22,8 C 18,4 C 0,8 UV-I 0,0 C 41 % 50 % 0 % 1022,6 hPa 0,0 l/m 10,4 km/h (2 Bft) 0 min 0 min 8,7 km/h (2 Bft)
09.05.2011 08:38 22,8 C 18,3 C 0,8 UV-I 0,0 C 41 % 50 % 0 % 1022,6 hPa 0,0 l/m 10,0 km/h (2 Bft) 0 min 0 min 14,2 km/h (3 Bft)
09.05.2011 08:40 22,8 C 18,3 C 0,8 UV-I 0,0 C 41 % 50 % 0 % 1022,6 hPa 0,0 l/m 10,4 km/h (2 Bft) 0 min 0 min 8,4 km/h (2 Bft)
09.05.2011 08:42 22,8 C 18,4 C 0,8 UV-I 0,0 C 41 % 50 % 0 % 1022,6 hPa 0,0 l/m 10,8 km/h (2 Bft) 0 min 0 min 11,9 km/h (2 Bft)
09.05.2011 08:44 22,8 C 18,4 C 0,8 UV-I 0,0 C 41 % 50 % 0 % 1022,6 hPa 0,0 l/m 10,4 km/h (2 Bft) 0 min 0 min 6,1 km/h (2 Bft)
09.05.2011 08:46 22,8 C 18,4 C 0,8 UV-I 0,0 C 41 % 50 % 0 % 1022,8 hPa 0,0 l/m 9,6 km/h (2 Bft) 0 min 0 min 9,7 km/h (2 Bft)
09.05.2011 08:48 22,8 C 18,3 C 0,9 UV-I 0,1 C 41 % 50 % 3 % 1022,8 hPa 0,0 l/m 10,0 km/h (2 Bft) 0 min 0 min 7,7 km/h (2 Bft)
09.05.2011 08:50 22,8 C 18,3 C 0,9 UV-I 0,1 C 41 % 50 % 3 % 1022,8 hPa 0,0 l/m 10,4 km/h (2 Bft) 0 min 0 min 16,1 km/h (3 Bft)
09.05.2011 08:52 22,8 C 18,4 C 1,0 UV-I 0,1 C 41 % 50 % 3 % 1022,8 hPa 0,0 l/m 11,2 km/h (2 Bft) 0 min 0 min 16,7 km/h (3 Bft)
09.05.2011 08:54 22,8 C 18,4 C 1,0 UV-I 0,1 C 41 % 50 % 3 % 1022,8 hPa 0,0 l/m 11,2 km/h (2 Bft) 0 min 0 min 0,0 km/h (0 Bft)
09.05.2011 08:56 22,8 C 18,4 C 1,0 UV-I 0,1 C 41 % 50 % 3 % 1022,8 hPa 0,0 l/m 11,6 km/h (2 Bft) 0 min 0 min 8,0 km/h (2 Bft)
09.05.2011 08:58 22,8 C 18,4 C 1,1 UV-I 0,1 C 41 % 50 % 3 % 1022,8 hPa 0,0 l/m 11,6 km/h (2 Bft) 0 min 0 min 12,6 km/h (3 Bft)
09.05.2011 09:00 22,8 C 18,5 C 1,1 UV-I 0,1 C 41 % 50 % 3 % 1022,8 hPa 0,0 l/m 11,6 km/h (2 Bft) 0 min 0 min 7,7 km/h (2 Bft)
09.05.2011 09:02 22,8 C 18,4 C 1,2 UV-I 0,3 C 41 % 50 % 9 % 1022,8 hPa 0,0 l/m 11,2 km/h (2 Bft) 0 min 0 min 11,6 km/h (2 Bft)
09.05.2011 09:04 22,9 C 18,4 C 1,2 UV-I 0,3 C 41 % 50 % 9 % 1022,8 hPa 0,0 l/m 10,4 km/h (2 Bft) 0 min 0 min 12,9 km/h (3 Bft)
09.05.2011 09:06 22,9 C 18,4 C 1,2 UV-I 0,4 C 41 % 50 % 11 % 1022,9 hPa 0,0 l/m 11,2 km/h (2 Bft) 0 min 0 min 6,1 km/h (2 Bft)
09.05.2011 09:08 22,8 C 18,5 C 1,3 UV-I 0,4 C 41 % 50 % 11 % 1022,9 hPa 0,0 l/m 11,2 km/h (2 Bft) 0 min 0 min 7,1 km/h (2 Bft)
09.05.2011 09:10 22,8 C 18,5 C 1,3 UV-I 0,4 C 41 % 50 % 11 % 1022,9 hPa 0,0 l/m 10,8 km/h (2 Bft) 0 min 0 min 14,5 km/h (3 Bft)
09.05.2011 09:12 22,8 C 18,5 C 1,4 UV-I 0,6 C 41 % 50 % 17 % 1022,9 hPa 0,0 l/m 10,8 km/h (2 Bft) 0 min 0 min 27,0 km/h (4 Bft)
09.05.2011 09:14 22,9 C 18,6 C 1,4 UV-I 0,5 C 41 % 51 % 14 % 1022,9 hPa 0,0 l/m 10,4 km/h (2 Bft) 0 min 0 min 7,1 km/h (2 Bft)
09.05.2011 09:16 22,9 C 18,7 C 1,4 UV-I 0,6 C 41 % 50 % 17 % 1022,9 hPa 0,0 l/m 10,8 km/h (2 Bft) 0 min 0 min 19,0 km/h (3 Bft)
09.05.2011 09:18 22,9 C 18,7 C 1,5 UV-I 0,6 C 41 % 50 % 17 % 1022,9 hPa 0,0 l/m 11,2 km/h (2 Bft) 0 min 0 min 10,0 km/h (2 Bft)
09.05.2011 09:20 22,9 C 18,7 C 1,5 UV-I 0,7 C 41 % 50 % 20 % 1022,9 hPa 0,0 l/m 11,2 km/h (2 Bft) 0 min 0 min 20,0 km/h (4 Bft)
09.05.2011 09:22 22,9 C 18,8 C 1,9 UV-I 0,7 C 41 % 50 % 20 % 1022,9 hPa 0,0 l/m 12,4 km/h (3 Bft) 0 min 0 min 6,1 km/h (2 Bft)
09.05.2011 09:24 22,9 C 18,8 C 1,9 UV-I 0,8 C 41 % 50 % 23 % 1022,9 hPa 0,0 l/m 12,4 km/h (3 Bft) 0 min 0 min 10,3 km/h (2 Bft)
09.05.2011 09:26 22,9 C 18,8 C 1,9 UV-I 1,3 C 41 % 50 % 37 % 1022,9 hPa 0,0 l/m 13,3 km/h (3 Bft) 0 min 0 min 10,3 km/h (2 Bft)
09.05.2011 09:28 22,9 C 18,9 C 3,3 UV-I 1,5 C 41 % 50 % 43 % 1022,9 hPa 0,0 l/m 11,6 km/h (2 Bft) 0 min 0 min 15,1 km/h (3 Bft)
09.05.2011 09:30 22,9 C 19,1 C 3,3 UV-I 1,4 C 41 % 50 % 40 % 1022,9 hPa 0,0 l/m 11,6 km/h (2 Bft) 0 min 0 min 11,6 km/h (2 Bft)
09.05.2011 09:32 22,9 C 19,0 C 2,0 UV-I 1,6 C 41 % 50 % 46 % 1022,9 hPa 0,0 l/m 10,8 km/h (2 Bft) 0 min 0 min 14,2 km/h (3 Bft)
09.05.2011 09:34 22,9 C 19,1 C 2,0 UV-I 1,5 C 41 % 50 % 43 % 1022,9 hPa 0,0 l/m 10,8 km/h (2 Bft) 0 min 0 min 15,1 km/h (3 Bft)
09.05.2011 09:36 22,9 C 19,1 C 2,0 UV-I 1,4 C 41 % 50 % 40 % 1022,9 hPa 0,0 l/m 10,8 km/h (2 Bft) 0 min 0 min 15,8 km/h (3 Bft)
09.05.2011 09:38 22,9 C 19,1 C 2,0 UV-I 1,4 C 41 % 49 % 40 % 1022,9 hPa 0,0 l/m 10,8 km/h (2 Bft) 0 min 0 min 6,8 km/h (2 Bft)
09.05.2011 09:40 22,9 C 19,2 C 2,0 UV-I 1,4 C 41 % 49 % 40 % 1022,9 hPa 0,0 l/m 11,2 km/h (2 Bft) 0 min 0 min 14,5 km/h (3 Bft)
09.05.2011 09:42 23,0 C 19,2 C 2,8 UV-I 1,6 C 41 % 50 % 46 % 1022,9 hPa 0,0 l/m 10,8 km/h (2 Bft) 0 min 0 min 5,5 km/h (1 Bft)
09.05.2011 09:44 23,0 C 19,3 C 2,8 UV-I 1,7 C 41 % 50 % 49 % 1022,9 hPa 0,0 l/m 10,4 km/h (2 Bft) 0 min 0 min 7,4 km/h (2 Bft)
09.05.2011 09:46 22,9 C 19,5 C 2,8 UV-I 1,8 C 41 % 49 % 51 % 1022,9 hPa 0,0 l/m 10,8 km/h (2 Bft) 0 min 0 min 0,0 km/h (0 Bft)
09.05.2011 09:48 23,0 C 19,5 C 3,8 UV-I 2,2 C 41 % 49 % 63 % 1022,9 hPa 0,0 l/m 10,4 km/h (2 Bft) 0 min 0 min 6,8 km/h (2 Bft)
09.05.2011 09:50 23,0 C 19,6 C 3,8 UV-I 2,6 C 41 % 50 % 74 % 1022,9 hPa 0,0 l/m 10,0 km/h (2 Bft) 0 min 0 min 14,2 km/h (3 Bft)
09.05.2011 09:52 23,0 C 19,7 C 4,9 UV-I 3,0 C 41 % 50 % 86 % 1022,9 hPa 0,0 l/m 9,2 km/h (2 Bft) 2 min 0 min 7,4 km/h (2 Bft)
09.05.2011 09:54 23,0 C 19,9 C 4,9 UV-I 3,1 C 41 % 49 % 89 % 1022,9 hPa 0,0 l/m 9,6 km/h (2 Bft) 2 min 0 min 14,2 km/h (3 Bft)
09.05.2011 09:56 23,0 C 20,0 C 4,9 UV-I 3,0 C 41 % 49 % 86 % 1022,9 hPa 0,0 l/m 8,8 km/h (2 Bft) 2 min 0 min 13,2 km/h (3 Bft)
09.05.2011 09:58 23,0 C 20,1 C 2,5 UV-I 2,7 C 41 % 49 % 77 % 1022,9 hPa 0,0 l/m 9,2 km/h (2 Bft) 0 min 0 min 20,0 km/h (4 Bft)
09.05.2011 10:00 23,0 C 20,0 C 2,5 UV-I 2,6 C 41 % 48 % 74 % 1022,9 hPa 0,0 l/m 8,4 km/h (2 Bft) 0 min 0 min 11,3 km/h (2 Bft)
09.05.2011 10:02 23,0 C 20,0 C 2,5 UV-I 2,5 C 41 % 48 % 71 % 1022,9 hPa 0,0 l/m 9,6 km/h (2 Bft) 0 min 0 min 13,5 km/h (3 Bft)
09.05.2011 10:04 23,0 C 20,0 C 2,5 UV-I 2,4 C 41 % 48 % 69 % 1022,9 hPa 0,0 l/m 10,0 km/h (2 Bft) 0 min 0 min 14,8 km/h (3 Bft)
09.05.2011 10:06 23,0 C 20,1 C 2,5 UV-I 2,2 C 41 % 48 % 63 % 1023,2 hPa 0,0 l/m 10,4 km/h (2 Bft) 0 min 0 min 12,2 km/h (2 Bft)
09.05.2011 10:08 23,0 C 20,1 C 2,5 UV-I 2,1 C 41 % 48 % 60 % 1023,2 hPa 0,0 l/m 10,8 km/h (2 Bft) 0 min 0 min 10,6 km/h (2 Bft)
09.05.2011 10:10 23,1 C 20,1 C 2,5 UV-I 2,2 C 41 % 47 % 63 % 1023,2 hPa 0,0 l/m 11,2 km/h (2 Bft) 0 min 0 min 22,5 km/h (4 Bft)
09.05.2011 10:12 23,0 C 20,3 C 3,0 UV-I 2,0 C 41 % 47 % 57 % 1023,2 hPa 0,0 l/m 11,6 km/h (2 Bft) 0 min 0 min 10,0 km/h (2 Bft)
09.05.2011 10:14 23,1 C 20,2 C 3,0 UV-I 2,2 C 41 % 47 % 63 % 1023,2 hPa 0,0 l/m 11,2 km/h (2 Bft) 0 min 0 min 13,8 km/h (3 Bft)
09.05.2011 10:16 23,1 C 20,3 C 3,0 UV-I 2,2 C 41 % 47 % 63 % 1023,2 hPa 0,0 l/m 10,8 km/h (2 Bft) 0 min 0 min 8,4 km/h (2 Bft)
09.05.2011 10:18 23,1 C 20,3 C 4,5 UV-I 2,5 C 41 % 47 % 71 % 1023,2 hPa 0,0 l/m 9,6 km/h (2 Bft) 0 min 0 min 8,0 km/h (2 Bft)
09.05.2011 10:20 23,1 C 20,5 C 4,5 UV-I 2,9 C 41 % 47 % 83 % 1023,2 hPa 0,0 l/m 10,0 km/h (2 Bft) 2 min 0 min 10,3 km/h (2 Bft)
09.05.2011 10:22 23,1 C 20,7 C 6,4 UV-I 3,4 C 41 % 46 % 97 % 1023,2 hPa 0,0 l/m 11,2 km/h (2 Bft) 2 min 0 min 19,6 km/h (3 Bft)
09.05.2011 10:24 23,1 C 20,7 C 6,4 UV-I 3,8 C 41 % 46 % 100 % 1023,2 hPa 0,0 l/m 13,3 km/h (3 Bft) 2 min 0 min 25,4 km/h (4 Bft)
09.05.2011 10:26 23,1 C 20,8 C 6,4 UV-I 3,7 C 41 % 45 % 100 % 1023,3 hPa 0,0 l/m 13,3 km/h (3 Bft) 2 min 0 min 12,2 km/h (2 Bft)
09.05.2011 10:28 23,1 C 20,8 C 4,9 UV-I 3,8 C 41 % 45 % 100 % 1023,3 hPa 0,0 l/m 13,7 km/h (3 Bft) 2 min 0 min 18,7 km/h (3 Bft)
09.05.2011 10:30 23,1 C 20,9 C 4,9 UV-I 3,7 C 41 % 45 % 100 % 1023,3 hPa 0,0 l/m 14,1 km/h (3 Bft) 2 min 0 min 9,0 km/h (2 Bft)
09.05.2011 10:32 23,1 C 20,9 C 6,1 UV-I 4,1 C 41 % 45 % 100 % 1023,3 hPa 0,0 l/m 14,1 km/h (3 Bft) 2 min 0 min 17,7 km/h (3 Bft)
09.05.2011 10:34 23,2 C 21,1 C 6,1 UV-I 4,1 C 41 % 45 % 100 % 1023,3 hPa 0,0 l/m 13,3 km/h (3 Bft) 2 min 0 min 16,1 km/h (3 Bft)
09.05.2011 10:36 23,2 C 21,0 C 6,1 UV-I 4,3 C 41 % 45 % 100 % 1023,3 hPa 0,0 l/m 11,6 km/h (2 Bft) 2 min 0 min 8,4 km/h (2 Bft)
09.05.2011 10:38 23,2 C 21,2 C 7,1 UV-I 4,4 C 41 % 44 % 100 % 1023,3 hPa 0,0 l/m 13,3 km/h (3 Bft) 2 min 0 min 20,6 km/h (4 Bft)
09.05.2011 10:40 23,2 C 21,2 C 7,1 UV-I 4,5 C 41 % 45 % 100 % 1023,3 hPa 0,0 l/m 13,3 km/h (3 Bft) 2 min 0 min 11,9 km/h (2 Bft)
09.05.2011 10:42 23,2 C 21,3 C 6,4 UV-I 4,5 C 41 % 44 % 100 % 1023,3 hPa 0,0 l/m 13,3 km/h (3 Bft) 2 min 0 min 9,3 km/h (2 Bft)
09.05.2011 10:44 23,2 C 21,3 C 6,4 UV-I 4,5 C 41 % 44 % 100 % 1023,3 hPa 0,0 l/m 12,4 km/h (3 Bft) 2 min 0 min 15,8 km/h (3 Bft)
09.05.2011 10:46 23,2 C 21,4 C 6,4 UV-I 4,6 C 41 % 44 % 100 % 1023,2 hPa 0,0 l/m 11,2 km/h (2 Bft) 2 min 0 min 10,3 km/h (2 Bft)
09.05.2011 10:48 23,2 C 21,6 C 7,3 UV-I 4,8 C 41 % 44 % 100 % 1023,2 hPa 0,0 l/m 11,2 km/h (2 Bft) 2 min 0 min 20,3 km/h (4 Bft)
09.05.2011 10:50 23,2 C 21,7 C 7,3 UV-I 5,0 C 41 % 43 % 100 % 1023,2 hPa 0,0 l/m 10,0 km/h (2 Bft) 2 min 0 min 12,9 km/h (3 Bft)
09.05.2011 10:52 23,2 C 21,7 C 7,2 UV-I 5,1 C 41 % 44 % 100 % 1023,2 hPa 0,0 l/m 10,0 km/h (2 Bft) 2 min 0 min 7,4 km/h (2 Bft)
09.05.2011 10:54 23,2 C 21,9 C 7,2 UV-I 5,2 C 41 % 44 % 100 % 1023,2 hPa 0,0 l/m 10,0 km/h (2 Bft) 2 min 0 min 10,9 km/h (2 Bft)
09.05.2011 10:56 23,2 C 22,0 C 7,2 UV-I 5,4 C 41 % 45 % 100 % 1023,2 hPa 0,0 l/m 9,6 km/h (2 Bft) 2 min 0 min 5,8 km/h (2 Bft)
09.05.2011 10:58 23,2 C 22,1 C 7,2 UV-I 5,7 C 41 % 44 % 100 % 1023,2 hPa 0,0 l/m 9,6 km/h (2 Bft) 2 min 0 min 6,1 km/h (2 Bft)
09.05.2011 11:00 23,2 C 22,3 C 7,2 UV-I 5,9 C 41 % 43 % 100 % 1023,2 hPa 0,0 l/m 8,4 km/h (2 Bft) 2 min 0 min 6,1 km/h (2 Bft)
09.05.2011 11:02 23,2 C 22,4 C 7,7 UV-I 5,9 C 41 % 43 % 100 % 1023,2 hPa 0,0 l/m 8,0 km/h (2 Bft) 2 min 0 min 11,3 km/h (2 Bft)
09.05.2011 11:04 23,2 C 22,5 C 7,7 UV-I 5,8 C 41 % 42 % 100 % 1023,2 hPa 0,0 l/m 8,0 km/h (2 Bft) 2 min 0 min 6,1 km/h (2 Bft)
09.05.2011 11:06 23,2 C 22,5 C 7,7 UV-I 5,7 C 41 % 42 % 100 % 1023,4 hPa 0,0 l/m 8,4 km/h (2 Bft) 2 min 0 min 7,4 km/h (2 Bft)
09.05.2011 11:08 23,2 C 22,5 C 7,1 UV-I 5,6 C 41 % 41 % 100 % 1023,4 hPa 0,0 l/m 8,8 km/h (2 Bft) 2 min 0 min 17,7 km/h (3 Bft)
09.05.2011 11:10 23,2 C 22,4 C 7,1 UV-I 5,3 C 41 % 42 % 100 % 1023,4 hPa 0,0 l/m 9,2 km/h (2 Bft) 2 min 0 min 7,7 km/h (2 Bft)
09.05.2011 11:12 23,2 C 22,4 C 6,7 UV-I 5,2 C 41 % 42 % 100 % 1023,4 hPa 0,0 l/m 9,2 km/h (2 Bft) 2 min 0 min 8,7 km/h (2 Bft)
09.05.2011 11:14 23,2 C 22,4 C 6,7 UV-I 5,3 C 41 % 41 % 100 % 1023,4 hPa 0,0 l/m 9,2 km/h (2 Bft) 2 min 0 min 7,7 km/h (2 Bft)
09.05.2011 11:16 23,2 C 22,4 C 6,7 UV-I 5,1 C 41 % 41 % 100 % 1023,4 hPa 0,0 l/m 10,4 km/h (2 Bft) 2 min 0 min 10,9 km/h (2 Bft)
09.05.2011 11:18 23,3 C 22,5 C 7,2 UV-I 4,8 C 42 % 41 % 100 % 1023,4 hPa 0,0 l/m 11,6 km/h (2 Bft) 2 min 0 min 17,4 km/h (3 Bft)
09.05.2011 11:20 23,3 C 22,4 C 7,2 UV-I 4,8 C 42 % 41 % 100 % 1023,4 hPa 0,0 l/m 12,4 km/h (3 Bft) 2 min 0 min 29,0 km/h (5 Bft)
09.05.2011 11:22 23,2 C 22,4 C 7,1 UV-I 4,5 C 41 % 41 % 100 % 1023,4 hPa 0,0 l/m 12,8 km/h (3 Bft) 2 min 0 min 14,5 km/h (3 Bft)
09.05.2011 11:24 23,3 C 22,5 C 7,1 UV-I 4,5 C 42 % 41 % 100 % 1023,4 hPa 0,0 l/m 12,8 km/h (3 Bft) 2 min 0 min 9,0 km/h (2 Bft)
09.05.2011 11:26 23,3 C 22,5 C 7,1 UV-I 4,6 C 42 % 41 % 100 % 1023,6 hPa 0,0 l/m 12,4 km/h (3 Bft) 2 min 0 min 10,0 km/h (2 Bft)
09.05.2011 11:28 23,3 C 22,7 C 7,4 UV-I 4,5 C 42 % 41 % 100 % 1023,6 hPa 0,0 l/m 12,8 km/h (3 Bft) 2 min 0 min 10,0 km/h (2 Bft)
09.05.2011 11:30 23,2 C 22,6 C 7,4 UV-I 4,4 C 42 % 41 % 100 % 1023,6 hPa 0,0 l/m 12,4 km/h (3 Bft) 2 min 0 min 7,7 km/h (2 Bft)
09.05.2011 11:32 23,2 C 22,7 C 7,4 UV-I 4,5 C 42 % 41 % 100 % 1023,6 hPa 0,0 l/m 10,8 km/h (2 Bft) 2 min 0 min 9,0 km/h (2 Bft)
09.05.2011 11:34 23,2 C 22,8 C 7,4 UV-I 4,8 C 42 % 41 % 100 % 1023,6 hPa 0,0 l/m 10,8 km/h (2 Bft) 2 min 0 min 9,7 km/h (2 Bft)
09.05.2011 11:36 23,2 C 22,8 C 7,4 UV-I 5,0 C 42 % 41 % 100 % 1023,6 hPa 0,0 l/m 10,8 km/h (2 Bft) 2 min 0 min 15,8 km/h (3 Bft)
09.05.2011 11:38 23,2 C 22,9 C 7,2 UV-I 5,0 C 42 % 40 % 100 % 1023,6 hPa 0,0 l/m 10,8 km/h (2 Bft) 2 min 0 min 13,2 km/h (3 Bft)
09.05.2011 11:40 23,2 C 23,0 C 7,2 UV-I 5,0 C 42 % 40 % 100 % 1023,6 hPa 0,0 l/m 11,2 km/h (2 Bft) 2 min 0 min 20,3 km/h (4 Bft)
09.05.2011 11:42 23,4 C 23,0 C 7,4 UV-I 4,9 C 42 % 40 % 100 % 1023,6 hPa 0,0 l/m 11,6 km/h (2 Bft) 2 min 0 min 5,5 km/h (1 Bft)
09.05.2011 11:44 23,2 C 23,1 C 7,4 UV-I 4,9 C 42 % 40 % 100 % 1023,6 hPa 0,0 l/m 12,4 km/h (3 Bft) 2 min 0 min 23,8 km/h (4 Bft)
09.05.2011 11:46 23,4 C 23,1 C 7,4 UV-I 4,8 C 42 % 40 % 100 % 1023,6 hPa 0,0 l/m 13,7 km/h (3 Bft) 2 min 0 min 15,1 km/h (3 Bft)
09.05.2011 11:48 23,4 C 23,0 C 5,0 UV-I 4,9 C 42 % 40 % 100 % 1023,6 hPa 0,0 l/m 14,1 km/h (3 Bft) 2 min 0 min 18,0 km/h (3 Bft)
09.05.2011 11:50 23,4 C 23,1 C 5,0 UV-I 4,6 C 42 % 40 % 100 % 1023,6 hPa 0,0 l/m 14,5 km/h (3 Bft) 2 min 0 min 9,0 km/h (2 Bft)
09.05.2011 11:52 23,4 C 23,1 C 5,0 UV-I 4,4 C 42 % 39 % 100 % 1023,6 hPa 0,0 l/m 13,7 km/h (3 Bft) 2 min 0 min 9,7 km/h (2 Bft)
09.05.2011 11:54 23,4 C 23,2 C 5,0 UV-I 4,3 C 42 % 40 % 100 % 1023,6 hPa 0,0 l/m 13,3 km/h (3 Bft) 2 min 0 min 0,0 km/h (0 Bft)
09.05.2011 11:56 23,4 C 23,3 C 5,0 UV-I 4,6 C 42 % 40 % 100 % 1023,6 hPa 0,0 l/m 11,2 km/h (2 Bft) 2 min 0 min 6,1 km/h (2 Bft)
09.05.2011 11:58 23,4 C 23,3 C 3,8 UV-I 4,9 C 42 % 40 % 100 % 1023,6 hPa 0,0 l/m 10,4 km/h (2 Bft) 2 min 0 min 9,0 km/h (2 Bft)
09.05.2011 12:00 23,4 C 23,5 C 3,8 UV-I 4,9 C 41 % 40 % 100 % 1023,6 hPa 0,0 l/m 9,2 km/h (2 Bft) 2 min 0 min 15,1 km/h (3 Bft)
09.05.2011 12:02 23,4 C 23,5 C 3,8 UV-I 4,9 C 41 % 39 % 100 % 1023,6 hPa 0,0 l/m 8,4 km/h (2 Bft) 2 min 0 min 16,1 km/h (3 Bft)
09.05.2011 12:04 23,4 C 23,5 C 3,8 UV-I 4,9 C 41 % 39 % 100 % 1023,6 hPa 0,0 l/m 8,4 km/h (2 Bft) 2 min 0 min 16,1 km/h (3 Bft)
09.05.2011 12:06 23,4 C 23,5 C 3,8 UV-I 5,0 C 41 % 39 % 100 % 1023,6 hPa 0,0 l/m 9,6 km/h (2 Bft) 2 min 0 min 13,5 km/h (3 Bft)
09.05.2011 12:08 23,4 C 23,5 C 3,6 UV-I 4,8 C 42 % 39 % 100 % 1023,6 hPa 0,0 l/m 11,2 km/h (2 Bft) 2 min 0 min 10,3 km/h (2 Bft)
09.05.2011 12:10 23,4 C 23,6 C 3,6 UV-I 4,5 C 41 % 39 % 100 % 1023,6 hPa 0,0 l/m 12,0 km/h (2 Bft) 2 min 0 min 11,3 km/h (2 Bft)
09.05.2011 12:12 23,5 C 23,7 C 3,6 UV-I 4,3 C 41 % 39 % 100 % 1023,6 hPa 0,0 l/m 12,0 km/h (2 Bft) 2 min 0 min 4,5 km/h (1 Bft)
09.05.2011 12:14 23,5 C 23,7 C 3,6 UV-I 4,4 C 41 % 38 % 100 % 1023,6 hPa 0,0 l/m 13,7 km/h (3 Bft) 2 min 0 min 8,7 km/h (2 Bft)
09.05.2011 12:16 23,5 C 23,7 C 3,6 UV-I 4,3 C 41 % 38 % 100 % 1023,6 hPa 0,0 l/m 13,3 km/h (3 Bft) 2 min 0 min 6,1 km/h (2 Bft)
09.05.2011 12:18 23,5 C 23,6 C 3,6 UV-I 4,5 C 41 % 38 % 100 % 1023,6 hPa 0,0 l/m 10,8 km/h (2 Bft) 2 min 0 min 3,2 km/h (1 Bft)
09.05.2011 12:20 23,5 C 23,6 C 3,6 UV-I 4,8 C 41 % 38 % 100 % 1023,6 hPa 0,0 l/m 10,4 km/h (2 Bft) 2 min 0 min 16,7 km/h (3 Bft)
09.05.2011 12:22 23,5 C 23,7 C 3,6 UV-I 4,7 C 41 % 38 % 100 % 1023,6 hPa 0,0 l/m 10,4 km/h (2 Bft) 2 min 0 min 5,8 km/h (2 Bft)
09.05.2011 12:24 23,5 C 23,7 C 3,6 UV-I 4,9 C 41 % 38 % 100 % 1023,6 hPa 0,0 l/m 8,8 km/h (2 Bft) 2 min 0 min 13,5 km/h (3 Bft)
09.05.2011 12:26 23,6 C 23,8 C 3,6 UV-I 5,0 C 41 % 38 % 100 % 1023,7 hPa 0,0 l/m 8,4 km/h (2 Bft) 2 min 0 min 8,4 km/h (2 Bft)
09.05.2011 12:28 23,6 C 24,0 C 3,6 UV-I 5,0 C 41 % 37 % 100 % 1023,7 hPa 0,0 l/m 7,6 km/h (2 Bft) 2 min 0 min 4,8 km/h (1 Bft)
09.05.2011 12:30 23,6 C 24,0 C 3,6 UV-I 5,2 C 41 % 38 % 100 % 1023,7 hPa 0,0 l/m 8,4 km/h (2 Bft) 2 min 0 min 16,7 km/h (3 Bft)
09.05.2011 12:32 23,6 C 24,1 C 3,6 UV-I 5,2 C 41 % 38 % 100 % 1023,7 hPa 0,0 l/m 8,0 km/h (2 Bft) 2 min 0 min 5,5 km/h (1 Bft)
09.05.2011 12:34 23,6 C 24,2 C 3,6 UV-I 5,1 C 41 % 37 % 100 % 1023,7 hPa 0,0 l/m 8,4 km/h (2 Bft) 2 min 0 min 7,4 km/h (2 Bft)
09.05.2011 12:36 23,6 C 24,3 C 3,6 UV-I 5,3 C 40 % 38 % 100 % 1023,7 hPa 0,0 l/m 8,0 km/h (2 Bft) 2 min 0 min 7,7 km/h (2 Bft)
09.05.2011 12:38 23,6 C 24,3 C 3,5 UV-I 5,5 C 40 % 37 % 100 % 1023,7 hPa 0,0 l/m 8,0 km/h (2 Bft) 2 min 0 min 5,8 km/h (2 Bft)
09.05.2011 12:40 23,6 C 24,5 C 3,5 UV-I 5,3 C 40 % 37 % 100 % 1023,7 hPa 0,0 l/m 8,8 km/h (2 Bft) 2 min 0 min 10,0 km/h (2 Bft)
09.05.2011 12:42 23,6 C 24,4 C 3,4 UV-I 5,3 C 40 % 37 % 100 % 1023,7 hPa 0,0 l/m 7,6 km/h (2 Bft) 2 min 0 min 7,4 km/h (2 Bft)
09.05.2011 12:44 23,6 C 24,6 C 3,4 UV-I 5,0 C 40 % 36 % 100 % 1023,7 hPa 0,0 l/m 8,0 km/h (2 Bft) 2 min 0 min 7,4 km/h (2 Bft)
09.05.2011 12:46 23,7 C 24,7 C 3,4 UV-I 4,9 C 40 % 37 % 100 % 1023,9 hPa 0,0 l/m 8,4 km/h (2 Bft) 2 min 0 min 11,3 km/h (2 Bft)
09.05.2011 12:48 23,6 C 24,6 C 3,3 UV-I 5,0 C 40 % 37 % 100 % 1023,9 hPa 0,0 l/m 8,8 km/h (2 Bft) 2 min 0 min 9,3 km/h (2 Bft)
09.05.2011 12:50 23,7 C 24,7 C 3,3 UV-I 4,9 C 40 % 37 % 100 % 1023,9 hPa 0,0 l/m 8,8 km/h (2 Bft) 2 min 0 min 15,1 km/h (3 Bft)
09.05.2011 12:52 23,7 C 24,8 C 3,3 UV-I 4,6 C 40 % 36 % 100 % 1023,9 hPa 0,0 l/m 8,8 km/h (2 Bft) 2 min 0 min 10,6 km/h (2 Bft)
09.05.2011 12:54 23,7 C 24,7 C 3,3 UV-I 4,6 C 40 % 36 % 100 % 1023,9 hPa 0,0 l/m 9,2 km/h (2 Bft) 2 min 0 min 10,0 km/h (2 Bft)
09.05.2011 12:56 23,7 C 24,7 C 3,3 UV-I 4,4 C 40 % 37 % 100 % 1023,9 hPa 0,0 l/m 8,8 km/h (2 Bft) 2 min 0 min 6,1 km/h (2 Bft)
09.05.2011 12:58 23,7 C 24,7 C 3,2 UV-I 4,5 C 40 % 37 % 100 % 1023,9 hPa 0,0 l/m 8,4 km/h (2 Bft) 2 min 0 min 11,3 km/h (2 Bft)
09.05.2011 13:00 23,7 C 24,9 C 3,2 UV-I 4,5 C 40 % 35 % 100 % 1023,9 hPa 0,0 l/m 8,8 km/h (2 Bft) 2 min 0 min 12,6 km/h (3 Bft)
09.05.2011 13:02 23,7 C 24,9 C 3,2 UV-I 4,5 C 40 % 35 % 100 % 1023,9 hPa 0,0 l/m 8,0 km/h (2 Bft) 2 min 0 min 4,8 km/h (1 Bft)
09.05.2011 13:04 23,7 C 24,9 C 3,2 UV-I 4,7 C 40 % 37 % 100 % 1023,9 hPa 0,0 l/m 7,6 km/h (2 Bft) 2 min 0 min 5,1 km/h (1 Bft)
09.05.2011 13:06 23,8 C 25,1 C 3,2 UV-I 4,9 C 40 % 36 % 100 % 1023,6 hPa 0,0 l/m 7,2 km/h (2 Bft) 2 min 0 min 14,2 km/h (3 Bft)
09.05.2011 13:08 23,8 C 25,2 C 3,3 UV-I 5,0 C 40 % 36 % 100 % 1023,6 hPa 0,0 l/m 8,4 km/h (2 Bft) 2 min 0 min 6,1 km/h (2 Bft)
09.05.2011 13:10 23,8 C 25,3 C 3,3 UV-I 5,0 C 40 % 35 % 100 % 1023,6 hPa 0,0 l/m 8,0 km/h (2 Bft) 2 min 0 min 10,6 km/h (2 Bft)
09.05.2011 13:12 23,8 C 25,3 C 4,3 UV-I 5,2 C 40 % 35 % 100 % 1023,6 hPa 0,0 l/m 8,0 km/h (2 Bft) 2 min 0 min 5,5 km/h (1 Bft)
09.05.2011 13:14 23,8 C 25,4 C 4,3 UV-I 5,2 C 40 % 34 % 100 % 1023,6 hPa 0,0 l/m 8,8 km/h (2 Bft) 2 min 0 min 7,4 km/h (2 Bft)
09.05.2011 13:16 23,8 C 25,4 C 4,3 UV-I 5,3 C 40 % 35 % 100 % 1023,6 hPa 0,0 l/m 9,2 km/h (2 Bft) 2 min 0 min 14,8 km/h (3 Bft)
09.05.2011 13:18 23,8 C 25,5 C 6,4 UV-I 5,4 C 40 % 34 % 100 % 1023,6 hPa 0,0 l/m 8,4 km/h (2 Bft) 2 min 0 min 7,4 km/h (2 Bft)
09.05.2011 13:20 23,8 C 25,5 C 6,4 UV-I 5,3 C 40 % 34 % 100 % 1023,6 hPa 0,0 l/m 8,8 km/h (2 Bft) 2 min 0 min 8,4 km/h (2 Bft)
09.05.2011 13:22 23,8 C 25,5 C 4,9 UV-I 5,0 C 40 % 33 % 100 % 1023,6 hPa 0,0 l/m 8,4 km/h (2 Bft) 2 min 0 min 8,4 km/h (2 Bft)
09.05.2011 13:24 23,8 C 25,5 C 4,9 UV-I 4,7 C 40 % 33 % 100 % 1023,6 hPa 0,0 l/m 8,4 km/h (2 Bft) 2 min 0 min 10,0 km/h (2 Bft)
09.05.2011 13:26 23,9 C 25,7 C 4,9 UV-I 4,6 C 40 % 33 % 100 % 1023,6 hPa 0,0 l/m 8,4 km/h (2 Bft) 2 min 0 min 6,4 km/h (2 Bft)
09.05.2011 13:28 23,9 C 25,7 C 7,0 UV-I 5,0 C 40 % 33 % 100 % 1023,6 hPa 0,0 l/m 8,0 km/h (2 Bft) 2 min 0 min 5,5 km/h (1 Bft)
09.05.2011 13:30 23,9 C 25,8 C 7,0 UV-I 5,2 C 40 % 33 % 100 % 1023,6 hPa 0,0 l/m 8,0 km/h (2 Bft) 2 min 0 min 4,8 km/h (1 Bft)
09.05.2011 13:32 23,9 C 25,9 C 6,7 UV-I 5,3 C 40 % 33 % 100 % 1023,6 hPa 0,0 l/m 7,6 km/h (2 Bft) 2 min 0 min 3,5 km/h (1 Bft)
09.05.2011 13:34 24,0 C 26,0 C 6,7 UV-I 5,5 C 41 % 35 % 100 % 1023,6 hPa 0,0 l/m 6,4 km/h (2 Bft) 2 min 0 min 4,5 km/h (1 Bft)
09.05.2011 13:36 23,9 C 26,0 C 6,7 UV-I 5,7 C 40 % 32 % 100 % 1023,6 hPa 0,0 l/m 6,8 km/h (2 Bft) 2 min 0 min 10,0 km/h (2 Bft)
09.05.2011 13:38 24,0 C 25,9 C 6,8 UV-I 5,8 C 41 % 34 % 100 % 1023,6 hPa 0,0 l/m 6,8 km/h (2 Bft) 2 min 0 min 10,3 km/h (2 Bft)
09.05.2011 13:40 24,0 C 25,9 C 6,8 UV-I 5,8 C 41 % 33 % 100 % 1023,6 hPa 0,0 l/m 6,8 km/h (2 Bft) 2 min 0 min 9,3 km/h (2 Bft)
09.05.2011 13:42 24,0 C 26,0 C 6,8 UV-I 5,7 C 41 % 34 % 100 % 1023,6 hPa 0,0 l/m 7,2 km/h (2 Bft) 2 min 0 min 7,1 km/h (2 Bft)
09.05.2011 13:44 24,0 C 26,0 C 6,8 UV-I 5,8 C 41 % 33 % 100 % 1023,6 hPa 0,0 l/m 8,0 km/h (2 Bft) 2 min 0 min 4,2 km/h (1 Bft)
09.05.2011 13:46 24,0 C 26,0 C 6,8 UV-I 6,0 C 41 % 32 % 100 % 1023,6 hPa 0,0 l/m 8,0 km/h (2 Bft) 2 min 0 min 3,9 km/h (1 Bft)
09.05.2011 13:48 24,0 C 26,1 C 6,8 UV-I 5,9 C 41 % 32 % 100 % 1023,6 hPa 0,0 l/m 7,6 km/h (2 Bft) 2 min 0 min 10,3 km/h (2 Bft)
09.05.2011 13:50 24,1 C 26,0 C 6,8 UV-I 5,9 C 41 % 32 % 100 % 1023,6 hPa 0,0 l/m 8,4 km/h (2 Bft) 2 min 0 min 14,2 km/h (3 Bft)
09.05.2011 13:52 24,1 C 26,0 C 5,9 UV-I 5,3 C 41 % 32 % 100 % 1023,6 hPa 0,0 l/m 8,4 km/h (2 Bft) 2 min 0 min 12,9 km/h (3 Bft)
09.05.2011 13:54 24,1 C 26,0 C 5,9 UV-I 4,9 C 41 % 32 % 100 % 1023,6 hPa 0,0 l/m 8,0 km/h (2 Bft) 2 min 0 min 3,2 km/h (1 Bft)
09.05.2011 13:56 24,1 C 26,0 C 5,9 UV-I 4,9 C 41 % 32 % 100 % 1023,6 hPa 0,0 l/m 8,4 km/h (2 Bft) 2 min 0 min 7,1 km/h (2 Bft)
09.05.2011 13:58 24,2 C 26,3 C 6,8 UV-I 4,7 C 41 % 32 % 100 % 1023,6 hPa 0,0 l/m 9,6 km/h (2 Bft) 2 min 0 min 10,3 km/h (2 Bft)
09.05.2011 14:00 24,2 C 26,3 C 6,8 UV-I 4,9 C 41 % 32 % 100 % 1023,6 hPa 0,0 l/m 9,6 km/h (2 Bft) 2 min 0 min 12,9 km/h (3 Bft)
09.05.2011 14:02 24,3 C 26,5 C 6,8 UV-I 5,2 C 41 % 34 % 100 % 1023,6 hPa 0,0 l/m 8,4 km/h (2 Bft) 2 min 0 min 8,7 km/h (2 Bft)
09.05.2011 14:04 24,2 C 26,7 C 7,7 UV-I 5,5 C 41 % 32 % 100 % 1023,6 hPa 0,0 l/m 8,8 km/h (2 Bft) 2 min 0 min 11,9 km/h (2 Bft)
09.05.2011 14:06 24,3 C 26,6 C 7,7 UV-I 5,5 C 41 % 32 % 100 % 1023,8 hPa 0,0 l/m 9,6 km/h (2 Bft) 2 min 0 min 12,2 km/h (2 Bft)
09.05.2011 14:08 24,3 C 26,7 C 6,5 UV-I 5,1 C 41 % 31 % 100 % 1023,8 hPa 0,0 l/m 8,8 km/h (2 Bft) 2 min 0 min 14,5 km/h (3 Bft)
09.05.2011 14:10 24,2 C 26,5 C 6,5 UV-I 5,2 C 41 % 32 % 100 % 1023,8 hPa 0,0 l/m 8,0 km/h (2 Bft) 2 min 0 min 0,0 km/h (0 Bft)
09.05.2011 14:12 24,4 C 26,5 C 6,5 UV-I 5,0 C 41 % 32 % 100 % 1023,8 hPa 0,0 l/m 8,0 km/h (2 Bft) 2 min 0 min 0,0 km/h (0 Bft)
09.05.2011 14:14 24,4 C 26,5 C 5,7 UV-I 4,8 C 41 % 31 % 100 % 1023,8 hPa 0,0 l/m 6,8 km/h (2 Bft) 2 min 0 min 3,5 km/h (1 Bft)
09.05.2011 14:16 24,4 C 26,5 C 5,7 UV-I 4,9 C 41 % 31 % 100 % 1023,8 hPa 0,0 l/m 6,0 km/h (2 Bft) 2 min 0 min 9,3 km/h (2 Bft)
09.05.2011 14:18 24,4 C 26,4 C 5,7 UV-I 4,9 C 41 % 31 % 100 % 1023,8 hPa 0,0 l/m 6,4 km/h (2 Bft) 2 min 0 min 8,7 km/h (2 Bft)
09.05.2011 14:20 24,4 C 26,5 C 5,7 UV-I 4,8 C 41 % 32 % 100 % 1023,8 hPa 0,0 l/m 5,2 km/h (1 Bft) 2 min 0 min 5,8 km/h (2 Bft)
09.05.2011 14:22 24,4 C 26,7 C 5,7 UV-I 5,1 C 41 % 31 % 100 % 1023,8 hPa 0,0 l/m 6,0 km/h (2 Bft) 2 min 0 min 7,1 km/h (2 Bft)
09.05.2011 14:24 24,5 C 26,7 C 7,4 UV-I 5,4 C 41 % 31 % 100 % 1023,8 hPa 0,0 l/m 7,2 km/h (2 Bft) 2 min 0 min 11,6 km/h (2 Bft)
09.05.2011 14:26 24,5 C 26,7 C 7,4 UV-I 5,4 C 40 % 32 % 100 % 1023,8 hPa 0,0 l/m 8,0 km/h (2 Bft) 2 min 0 min 5,5 km/h (1 Bft)
09.05.2011 14:28 24,6 C 26,9 C 7,8 UV-I 5,4 C 40 % 31 % 100 % 1023,8 hPa 0,0 l/m 7,2 km/h (2 Bft) 2 min 0 min 10,9 km/h (2 Bft)
09.05.2011 14:30 24,6 C 27,1 C 7,8 UV-I 5,7 C 40 % 30 % 100 % 1023,8 hPa 0,0 l/m 8,8 km/h (2 Bft) 2 min 0 min 6,1 km/h (2 Bft)
09.05.2011 14:32 24,6 C 27,1 C 7,8 UV-I 6,0 C 40 % 31 % 100 % 1023,8 hPa 0,0 l/m 8,8 km/h (2 Bft) 2 min 0 min 19,0 km/h (3 Bft)
09.05.2011 14:34 24,7 C 27,3 C 8,6 UV-I 6,1 C 40 % 31 % 100 % 1023,8 hPa 0,0 l/m 8,4 km/h (2 Bft) 2 min 0 min 7,7 km/h (2 Bft)
09.05.2011 14:36 24,7 C 27,4 C 8,6 UV-I 6,4 C 40 % 31 % 100 % 1023,8 hPa 0,0 l/m 8,0 km/h (2 Bft) 2 min 0 min 4,2 km/h (1 Bft)
09.05.2011 14:38 24,8 C 27,5 C 8,5 UV-I 6,6 C 40 % 31 % 100 % 1023,8 hPa 0,0 l/m 7,6 km/h (2 Bft) 2 min 0 min 3,2 km/h (1 Bft)
09.05.2011 14:40 24,8 C 27,5 C 8,5 UV-I 6,7 C 40 % 30 % 100 % 1023,8 hPa 0,0 l/m 6,8 km/h (2 Bft) 2 min 0 min 9,0 km/h (2 Bft)
09.05.2011 14:42 24,8 C 27,5 C 8,5 UV-I 6,1 C 40 % 30 % 100 % 1023,8 hPa 0,0 l/m 6,4 km/h (2 Bft) 2 min 0 min 6,1 km/h (2 Bft)
09.05.2011 14:44 24,8 C 27,2 C 4,5 UV-I 5,8 C 40 % 30 % 100 % 1023,8 hPa 0,0 l/m 5,6 km/h (1 Bft) 2 min 0 min 4,8 km/h (1 Bft)
09.05.2011 14:46 24,8 C 27,2 C 4,5 UV-I 5,0 C 40 % 30 % 100 % 1023,8 hPa 0,0 l/m 4,8 km/h (1 Bft) 2 min 0 min 4,5 km/h (1 Bft)
09.05.2011 14:48 24,8 C 27,2 C 4,5 UV-I 4,8 C 40 % 30 % 100 % 1023,8 hPa 0,0 l/m 5,2 km/h (1 Bft) 2 min 0 min 6,1 km/h (2 Bft)
09.05.2011 14:50 24,8 C 27,3 C 4,5 UV-I 4,9 C 40 % 30 % 100 % 1023,8 hPa 0,0 l/m 5,6 km/h (1 Bft) 2 min 0 min 5,1 km/h (1 Bft)
09.05.2011 14:52 24,8 C 27,5 C 4,5 UV-I 5,3 C 40 % 31 % 100 % 1023,8 hPa 0,0 l/m 5,6 km/h (1 Bft) 2 min 0 min 4,5 km/h (1 Bft)
09.05.2011 14:54 24,8 C 27,6 C 8,7 UV-I 5,7 C 40 % 30 % 100 % 1023,8 hPa 0,0 l/m 5,6 km/h (1 Bft) 2 min 0 min 6,4 km/h (2 Bft)
09.05.2011 14:56 24,8 C 27,7 C 8,7 UV-I 6,2 C 40 % 30 % 100 % 1023,8 hPa 0,0 l/m 6,4 km/h (2 Bft) 2 min 0 min 9,0 km/h (2 Bft)
09.05.2011 14:58 24,9 C 27,9 C 8,7 UV-I 6,3 C 40 % 30 % 100 % 1023,8 hPa 0,0 l/m 6,8 km/h (2 Bft) 2 min 0 min 6,4 km/h (2 Bft)
09.05.2011 15:00 24,9 C 27,9 C 8,7 UV-I 6,3 C 40 % 28 % 100 % 1023,8 hPa 0,0 l/m 7,6 km/h (2 Bft) 2 min 0 min 16,7 km/h (3 Bft)
09.05.2011 15:02 25,0 C 27,7 C 8,7 UV-I 6,2 C 40 % 29 % 100 % 1023,8 hPa 0,0 l/m 8,0 km/h (2 Bft) 2 min 0 min 18,0 km/h (3 Bft)
09.05.2011 15:04 25,0 C 27,7 C 7,9 UV-I 5,8 C 40 % 29 % 100 % 1023,8 hPa 0,0 l/m 9,6 km/h (2 Bft) 2 min 0 min 11,9 km/h (2 Bft)
09.05.2011 15:06 25,0 C 27,7 C 7,9 UV-I 5,5 C 40 % 30 % 100 % 1024,0 hPa 0,0 l/m 10,0 km/h (2 Bft) 2 min 0 min 6,4 km/h (2 Bft)
09.05.2011 15:08 25,0 C 27,7 C 7,4 UV-I 5,2 C 40 % 30 % 100 % 1024,0 hPa 0,0 l/m 10,8 km/h (2 Bft) 2 min 0 min 12,9 km/h (3 Bft)
09.05.2011 15:10 25,1 C 27,7 C 7,4 UV-I 4,8 C 40 % 30 % 100 % 1024,0 hPa 0,0 l/m 10,8 km/h (2 Bft) 2 min 0 min 14,5 km/h (3 Bft)
09.05.2011 15:12 25,1 C 27,6 C 7,4 UV-I 4,7 C 40 % 31 % 100 % 1024,0 hPa 0,0 l/m 10,0 km/h (2 Bft) 2 min 0 min 6,8 km/h (2 Bft)
09.05.2011 15:14 25,1 C 27,6 C 6,5 UV-I 4,5 C 40 % 31 % 100 % 1024,0 hPa 0,0 l/m 8,8 km/h (2 Bft) 2 min 0 min 3,5 km/h (1 Bft)
09.05.2011 15:16 25,1 C 27,5 C 6,5 UV-I 4,6 C 40 % 30 % 100 % 1024,0 hPa 0,0 l/m 7,2 km/h (2 Bft) 2 min 0 min 0,0 km/h (0 Bft)
09.05.2011 15:18 25,2 C 27,4 C 6,2 UV-I 4,7 C 40 % 31 % 100 % 1024,0 hPa 0,0 l/m 6,0 km/h (2 Bft) 2 min 0 min 4,2 km/h (1 Bft)
09.05.2011 15:20 25,2 C 27,5 C 6,2 UV-I 4,3 C 40 % 31 % 100 % 1024,0 hPa 0,0 l/m 5,2 km/h (1 Bft) 2 min 0 min 7,1 km/h (2 Bft)
09.05.2011 15:22 25,2 C 27,4 C 6,2 UV-I 4,2 C 40 % 31 % 100 % 1024,0 hPa 0,0 l/m 4,8 km/h (1 Bft) 2 min 0 min 6,4 km/h (2 Bft)
09.05.2011 15:24 25,2 C 27,5 C 6,6 UV-I 4,1 C 39 % 31 % 100 % 1024,0 hPa 0,0 l/m 5,6 km/h (1 Bft) 2 min 0 min 4,5 km/h (1 Bft)
09.05.2011 15:26 25,2 C 27,4 C 6,6 UV-I 4,1 C 39 % 31 % 100 % 1024,1 hPa 0,0 l/m 7,2 km/h (2 Bft) 2 min 0 min 9,0 km/h (2 Bft)
09.05.2011 15:28 25,3 C 27,3 C 7,1 UV-I 4,3 C 39 % 30 % 100 % 1024,1 hPa 0,0 l/m 8,0 km/h (2 Bft) 2 min 0 min 4,8 km/h (1 Bft)
09.05.2011 15:30 25,3 C 27,3 C 7,1 UV-I 4,4 C 39 % 32 % 100 % 1024,1 hPa 0,0 l/m 6,8 km/h (2 Bft) 2 min 0 min 0,0 km/h (0 Bft)
09.05.2011 15:32 25,2 C 27,3 C 7,1 UV-I 4,5 C 39 % 31 % 100 % 1024,1 hPa 0,0 l/m 6,8 km/h (2 Bft) 2 min 0 min 7,1 km/h (2 Bft)
09.05.2011 15:34 25,4 C 27,2 C 6,7 UV-I 4,7 C 39 % 31 % 100 % 1024,1 hPa 0,0 l/m 6,0 km/h (2 Bft) 2 min 0 min 4,8 km/h (1 Bft)
09.05.2011 15:36 25,4 C 27,2 C 6,7 UV-I 5,0 C 39 % 31 % 100 % 1024,1 hPa 0,0 l/m 4,0 km/h (1 Bft) 2 min 0 min 6,4 km/h (2 Bft)
09.05.2011 15:38 25,4 C 27,3 C 7,6 UV-I 5,1 C 38 % 31 % 100 % 1024,1 hPa 0,0 l/m 3,6 km/h (1 Bft) 2 min 0 min 3,5 km/h (1 Bft)
09.05.2011 15:40 25,5 C 27,3 C 7,6 UV-I 5,3 C 39 % 31 % 100 % 1024,1 hPa 0,0 l/m 3,6 km/h (1 Bft) 2 min 0 min 4,5 km/h (1 Bft)
09.05.2011 15:42 25,5 C 27,4 C 7,6 UV-I 5,3 C 38 % 31 % 100 % 1024,1 hPa 0,0 l/m 3,2 km/h (1 Bft) 2 min 0 min 3,2 km/h (1 Bft)
09.05.2011 15:44 25,6 C 27,5 C 7,2 UV-I 5,4 C 39 % 31 % 100 % 1024,1 hPa 0,0 l/m 2,8 km/h (1 Bft) 2 min 0 min 4,5 km/h (1 Bft)
09.05.2011 15:46 25,5 C 27,5 C 7,2 UV-I 5,4 C 38 % 31 % 100 % 1024,2 hPa 0,0 l/m 4,0 km/h (1 Bft) 2 min 0 min 12,2 km/h (2 Bft)
09.05.2011 15:48 25,6 C 27,6 C 6,8 UV-I 5,0 C 39 % 30 % 100 % 1024,2 hPa 0,0 l/m 5,2 km/h (1 Bft) 2 min 0 min 6,1 km/h (2 Bft)
09.05.2011 15:50 25,6 C 27,5 C 6,8 UV-I 4,9 C 39 % 31 % 100 % 1024,2 hPa 0,0 l/m 5,2 km/h (1 Bft) 2 min 0 min 3,2 km/h (1 Bft)
09.05.2011 15:52 25,6 C 27,5 C 6,8 UV-I 5,1 C 39 % 30 % 100 % 1024,2 hPa 0,0 l/m 4,4 km/h (1 Bft) 2 min 0 min 0,0 km/h (0 Bft)
09.05.2011 15:54 25,6 C 27,6 C 7,1 UV-I 5,3 C 39 % 30 % 100 % 1024,2 hPa 0,0 l/m 4,4 km/h (1 Bft) 2 min 0 min 8,4 km/h (2 Bft)
09.05.2011 15:56 25,6 C 27,7 C 7,1 UV-I 5,2 C 39 % 30 % 100 % 1024,2 hPa 0,0 l/m 5,2 km/h (1 Bft) 2 min 0 min 9,0 km/h (2 Bft)
09.05.2011 15:58 25,7 C 27,7 C 6,9 UV-I 4,9 C 39 % 30 % 100 % 1024,2 hPa 0,0 l/m 3,6 km/h (1 Bft) 2 min 0 min 3,9 km/h (1 Bft)
09.05.2011 16:00 25,7 C 27,7 C 6,9 UV-I 4,7 C 39 % 31 % 100 % 1024,2 hPa 0,0 l/m 3,2 km/h (1 Bft) 2 min 0 min 6,8 km/h (2 Bft)
09.05.2011 16:02 25,7 C 27,7 C 6,9 UV-I 4,7 C 39 % 31 % 100 % 1024,2 hPa 0,0 l/m 3,6 km/h (1 Bft) 2 min 0 min 6,8 km/h (2 Bft)
09.05.2011 16:04 25,7 C 27,7 C 6,3 UV-I 4,7 C 39 % 31 % 100 % 1024,2 hPa 0,0 l/m 4,4 km/h (1 Bft) 2 min 0 min 5,1 km/h (1 Bft)
09.05.2011 16:06 25,7 C 27,8 C 6,3 UV-I 4,5 C 39 % 30 % 100 % 1024,2 hPa 0,0 l/m 4,4 km/h (1 Bft) 2 min 0 min 10,6 km/h (2 Bft)
09.05.2011 16:08 25,7 C 27,9 C 7,2 UV-I 4,3 C 39 % 30 % 100 % 1024,2 hPa 0,0 l/m 4,4 km/h (1 Bft) 2 min 0 min 14,8 km/h (3 Bft)
09.05.2011 16:10 25,8 C 27,8 C 7,2 UV-I 4,5 C 39 % 30 % 100 % 1024,2 hPa 0,0 l/m 4,8 km/h (1 Bft) 2 min 0 min 9,7 km/h (2 Bft)
09.05.2011 16:12 25,8 C 27,8 C 7,2 UV-I 4,6 C 39 % 30 % 100 % 1024,2 hPa 0,0 l/m 5,6 km/h (1 Bft) 2 min 0 min 9,0 km/h (2 Bft)
09.05.2011 16:14 25,8 C 27,8 C 7,3 UV-I 4,6 C 39 % 31 % 100 % 1024,2 hPa 0,0 l/m 6,8 km/h (2 Bft) 2 min 0 min 9,0 km/h (2 Bft)
09.05.2011 16:16 25,8 C 27,7 C 7,3 UV-I 4,7 C 39 % 30 % 100 % 1024,2 hPa 0,0 l/m 7,2 km/h (2 Bft) 2 min 0 min 4,5 km/h (1 Bft)
09.05.2011 16:18 25,8 C 27,8 C 7,4 UV-I 4,6 C 39 % 31 % 100 % 1024,2 hPa 0,0 l/m 6,8 km/h (2 Bft) 2 min 0 min 6,4 km/h (2 Bft)
09.05.2011 16:20 25,8 C 27,8 C 7,4 UV-I 4,7 C 39 % 31 % 100 % 1024,2 hPa 0,0 l/m 6,0 km/h (2 Bft) 2 min 0 min 0,0 km/h (0 Bft)
09.05.2011 16:22 25,8 C 27,9 C 7,4 UV-I 4,8 C 39 % 31 % 100 % 1024,2 hPa 0,0 l/m 5,2 km/h (1 Bft) 2 min 0 min 4,5 km/h (1 Bft)
09.05.2011 16:24 25,8 C 27,7 C 6,9 UV-I 5,2 C 39 % 30 % 100 % 1024,2 hPa 0,0 l/m 4,4 km/h (1 Bft) 2 min 0 min 4,5 km/h (1 Bft)
09.05.2011 16:26 25,8 C 27,6 C 6,9 UV-I 5,1 C 39 % 31 % 100 % 1024,0 hPa 0,0 l/m 4,0 km/h (1 Bft) 2 min 0 min 6,1 km/h (2 Bft)
09.05.2011 16:28 25,8 C 27,7 C 6,9 UV-I 4,8 C 38 % 30 % 100 % 1024,0 hPa 0,0 l/m 4,0 km/h (1 Bft) 2 min 0 min 6,1 km/h (2 Bft)
09.05.2011 16:30 25,8 C 27,6 C 6,9 UV-I 4,3 C 39 % 31 % 100 % 1024,0 hPa 0,0 l/m 4,4 km/h (1 Bft) 2 min 0 min 6,8 km/h (2 Bft)
09.05.2011 16:32 25,8 C 27,6 C 6,9 UV-I 3,8 C 39 % 31 % 100 % 1024,0 hPa 0,0 l/m 4,8 km/h (1 Bft) 2 min 0 min 5,8 km/h (2 Bft)
09.05.2011 16:34 25,8 C 27,5 C 6,0 UV-I 3,8 C 39 % 32 % 100 % 1024,0 hPa 0,0 l/m 4,4 km/h (1 Bft) 2 min 0 min 3,2 km/h (1 Bft)
09.05.2011 16:36 25,7 C 27,5 C 6,0 UV-I 4,2 C 39 % 33 % 100 % 1024,0 hPa 0,0 l/m 4,4 km/h (1 Bft) 2 min 0 min 9,0 km/h (2 Bft)
09.05.2011 16:38 25,7 C 27,7 C 7,5 UV-I 4,3 C 39 % 31 % 100 % 1024,0 hPa 0,0 l/m 4,4 km/h (1 Bft) 2 min 0 min 3,9 km/h (1 Bft)
09.05.2011 16:40 25,7 C 27,7 C 7,5 UV-I 4,6 C 39 % 30 % 100 % 1024,0 hPa 0,0 l/m 4,0 km/h (1 Bft) 2 min 0 min 6,4 km/h (2 Bft)
09.05.2011 16:42 25,7 C 27,5 C 7,5 UV-I 5,1 C 39 % 31 % 100 % 1024,0 hPa 0,0 l/m 3,6 km/h (1 Bft) 2 min 0 min 0,0 km/h (0 Bft)
09.05.2011 16:44 25,7 C 27,6 C 7,1 UV-I 5,0 C 39 % 31 % 100 % 1024,0 hPa 0,0 l/m 2,8 km/h (1 Bft) 2 min 0 min 3,2 km/h (1 Bft)
09.05.2011 16:46 25,7 C 27,6 C 7,1 UV-I 5,2 C 39 % 31 % 100 % 1024,1 hPa 0,0 l/m 3,2 km/h (1 Bft) 2 min 0 min 3,5 km/h (1 Bft)
09.05.2011 16:48 25,7 C 27,6 C 6,1 UV-I 4,8 C 39 % 31 % 100 % 1024,1 hPa 0,0 l/m 1,6 km/h (1 Bft) 2 min 0 min 0,0 km/h (0 Bft)
09.05.2011 16:50 25,7 C 27,6 C 6,1 UV-I 4,9 C 39 % 31 % 100 % 1024,1 hPa 0,0 l/m 2,0 km/h (1 Bft) 2 min 0 min 0,0 km/h (0 Bft)
09.05.2011 16:52 25,7 C 27,7 C 6,1 UV-I 5,0 C 39 % 32 % 100 % 1024,1 hPa 0,0 l/m 2,0 km/h (1 Bft) 2 min 0 min 6,4 km/h (2 Bft)
09.05.2011 16:54 25,6 C 27,6 C 7,0 UV-I 5,1 C 39 % 33 % 100 % 1024,1 hPa 0,0 l/m 2,4 km/h (1 Bft) 2 min 0 min 0,0 km/h (0 Bft)
09.05.2011 16:56 25,6 C 27,6 C 7,0 UV-I 5,1 C 39 % 34 % 100 % 1024,1 hPa 0,0 l/m 2,4 km/h (1 Bft) 2 min 0 min 3,5 km/h (1 Bft)
09.05.2011 16:58 25,6 C 27,7 C 6,6 UV-I 5,4 C 39 % 33 % 100 % 1024,1 hPa 0,0 l/m 3,2 km/h (1 Bft) 2 min 0 min 4,2 km/h (1 Bft)
09.05.2011 17:00 25,6 C 27,7 C 6,6 UV-I 4,8 C 39 % 33 % 100 % 1024,1 hPa 0,0 l/m 2,8 km/h (1 Bft) 2 min 0 min 0,0 km/h (0 Bft)
09.05.2011 17:02 25,6 C 27,6 C 6,6 UV-I 4,4 C 39 % 33 % 100 % 1024,1 hPa 0,0 l/m 2,4 km/h (1 Bft) 2 min 0 min 3,5 km/h (1 Bft)
09.05.2011 17:04 25,6 C 27,5 C 3,8 UV-I 3,9 C 39 % 33 % 100 % 1024,1 hPa 0,0 l/m 2,4 km/h (1 Bft) 2 min 0 min 3,9 km/h (1 Bft)
09.05.2011 17:06 25,6 C 27,3 C 3,8 UV-I 3,9 C 39 % 32 % 100 % 1023,8 hPa 0,0 l/m 2,8 km/h (1 Bft) 2 min 0 min 3,9 km/h (1 Bft)
09.05.2011 17:08 25,6 C 27,0 C 3,3 UV-I 3,5 C 39 % 34 % 100 % 1023,8 hPa 0,0 l/m 2,8 km/h (1 Bft) 2 min 0 min 3,5 km/h (1 Bft)
09.05.2011 17:10 25,6 C 26,8 C 3,3 UV-I 2,9 C 39 % 35 % 83 % 1023,8 hPa 0,0 l/m 3,2 km/h (1 Bft) 2 min 0 min 5,1 km/h (1 Bft)
09.05.2011 17:12 25,6 C 26,6 C 3,3 UV-I 2,6 C 39 % 35 % 74 % 1023,8 hPa 0,0 l/m 4,0 km/h (1 Bft) 0 min 0 min 7,4 km/h (2 Bft)
09.05.2011 17:14 25,5 C 26,5 C 2,3 UV-I 2,0 C 38 % 36 % 57 % 1023,8 hPa 0,0 l/m 5,2 km/h (1 Bft) 0 min 0 min 5,8 km/h (2 Bft)
09.05.2011 17:16 25,5 C 26,2 C 2,3 UV-I 1,7 C 38 % 39 % 49 % 1023,8 hPa 0,0 l/m 6,4 km/h (2 Bft) 0 min 0 min 8,7 km/h (2 Bft)
09.05.2011 17:18 25,5 C 25,9 C 2,1 UV-I 1,5 C 38 % 40 % 43 % 1023,8 hPa 0,0 l/m 6,8 km/h (2 Bft) 0 min 0 min 5,1 km/h (1 Bft)
09.05.2011 17:20 25,5 C 25,7 C 2,1 UV-I 1,2 C 38 % 41 % 34 % 1023,8 hPa 0,0 l/m 7,2 km/h (2 Bft) 0 min 0 min 3,9 km/h (1 Bft)
09.05.2011 17:22 25,5 C 25,6 C 2,1 UV-I 0,8 C 38 % 42 % 23 % 1023,8 hPa 0,0 l/m 6,4 km/h (2 Bft) 0 min 0 min 0,0 km/h (0 Bft)
09.05.2011 17:24 25,4 C 25,4 C 2,5 UV-I 0,9 C 39 % 43 % 26 % 1023,8 hPa 0,0 l/m 5,6 km/h (1 Bft) 0 min 0 min 6,1 km/h (2 Bft)
09.05.2011 17:26 25,4 C 25,5 C 2,5 UV-I 1,2 C 39 % 44 % 34 % 1023,9 hPa 0,0 l/m 5,2 km/h (1 Bft) 0 min 0 min 11,9 km/h (2 Bft)
09.05.2011 17:28 25,4 C 25,4 C 3,0 UV-I 1,5 C 39 % 46 % 43 % 1023,9 hPa 0,0 l/m 4,4 km/h (1 Bft) 0 min 0 min 4,5 km/h (1 Bft)
09.05.2011 17:30 25,4 C 25,3 C 3,0 UV-I 1,5 C 39 % 48 % 43 % 1023,9 hPa 0,0 l/m 3,6 km/h (1 Bft) 0 min 0 min 4,2 km/h (1 Bft)
09.05.2011 17:32 25,4 C 25,1 C 3,0 UV-I 1,5 C 39 % 48 % 43 % 1023,9 hPa 0,0 l/m 3,6 km/h (1 Bft) 0 min 0 min 0,0 km/h (0 Bft)
09.05.2011 17:34 25,4 C 25,1 C 2,4 UV-I 1,2 C 40 % 49 % 34 % 1023,9 hPa 0,0 l/m 4,0 km/h (1 Bft) 0 min 0 min 6,8 km/h (2 Bft)
09.05.2011 17:36 25,4 C 24,9 C 2,4 UV-I 1,1 C 40 % 49 % 31 % 1023,9 hPa 0,0 l/m 3,6 km/h (1 Bft) 0 min 0 min 0,0 km/h (0 Bft)
09.05.2011 17:38 25,4 C 24,7 C 2,1 UV-I 1,0 C 40 % 50 % 29 % 1023,9 hPa 0,0 l/m 3,6 km/h (1 Bft) 0 min 0 min 14,5 km/h (3 Bft)
09.05.2011 17:40 25,4 C 24,5 C 2,1 UV-I 1,1 C 40 % 50 % 31 % 1023,9 hPa 0,0 l/m 3,6 km/h (1 Bft) 0 min 0 min 10,3 km/h (2 Bft)
09.05.2011 17:42 25,2 C 24,4 C 2,1 UV-I 1,4 C 40 % 51 % 40 % 1023,9 hPa 0,0 l/m 5,2 km/h (1 Bft) 0 min 0 min 17,7 km/h (3 Bft)
09.05.2011 17:44 25,2 C 24,3 C 2,7 UV-I 1,7 C 40 % 50 % 49 % 1023,9 hPa 0,0 l/m 6,0 km/h (2 Bft) 0 min 0 min 5,8 km/h (2 Bft)
09.05.2011 17:46 25,2 C 24,3 C 2,7 UV-I 1,9 C 40 % 52 % 54 % 1023,9 hPa 0,0 l/m 5,6 km/h (1 Bft) 0 min 0 min 4,5 km/h (1 Bft)
09.05.2011 17:48 25,2 C 24,1 C 2,4 UV-I 2,0 C 40 % 51 % 57 % 1023,9 hPa 0,0 l/m 6,8 km/h (2 Bft) 0 min 0 min 6,1 km/h (2 Bft)
09.05.2011 17:50 25,3 C 24,1 C 2,4 UV-I 1,9 C 40 % 51 % 54 % 1023,9 hPa 0,0 l/m 7,2 km/h (2 Bft) 0 min 0 min 6,8 km/h (2 Bft)
09.05.2011 17:52 25,3 C 23,9 C 2,4 UV-I 2,4 C 40 % 51 % 69 % 1023,9 hPa 0,0 l/m 6,8 km/h (2 Bft) 0 min 0 min 0,0 km/h (0 Bft)
09.05.2011 17:54 25,2 C 23,9 C 2,2 UV-I 2,4 C 40 % 52 % 69 % 1023,9 hPa 0,0 l/m 6,8 km/h (2 Bft) 0 min 0 min 11,6 km/h (2 Bft)
09.05.2011 17:56 25,2 C 23,9 C 2,2 UV-I 2,1 C 40 % 52 % 60 % 1023,9 hPa 0,0 l/m 7,6 km/h (2 Bft) 0 min 0 min 10,0 km/h (2 Bft)
09.05.2011 17:58 25,2 C 23,7 C 1,8 UV-I 1,7 C 40 % 52 % 49 % 1023,9 hPa 0,0 l/m 7,6 km/h (2 Bft) 0 min 0 min 13,2 km/h (3 Bft)
09.05.2011 18:00 25,2 C 23,5 C 1,8 UV-I 1,4 C 40 % 53 % 40 % 1023,9 hPa 0,0 l/m 6,8 km/h (2 Bft) 0 min 0 min 0,0 km/h (0 Bft)
09.05.2011 18:02 25,2 C 23,5 C 1,8 UV-I 1,2 C 40 % 53 % 34 % 1023,9 hPa 0,0 l/m 7,2 km/h (2 Bft) 0 min 0 min 14,8 km/h (3 Bft)
09.05.2011 18:04 25,2 C 23,5 C 1,8 UV-I 0,9 C 40 % 54 % 26 % 1023,9 hPa 0,0 l/m 7,6 km/h (2 Bft) 0 min 0 min 3,2 km/h (1 Bft)
09.05.2011 18:06 25,2 C 23,4 C 1,8 UV-I 0,9 C 40 % 54 % 26 % 1023,8 hPa 0,0 l/m 6,4 km/h (2 Bft) 0 min 0 min 10,6 km/h (2 Bft)
09.05.2011 18:08 25,2 C 23,3 C 1,8 UV-I 0,9 C 41 % 54 % 26 % 1023,8 hPa 0,0 l/m 6,4 km/h (2 Bft) 0 min 0 min 11,3 km/h (2 Bft)
09.05.2011 18:10 25,2 C 23,2 C 1,8 UV-I 0,8 C 41 % 55 % 23 % 1023,8 hPa 0,0 l/m 6,8 km/h (2 Bft) 0 min 0 min 13,2 km/h (3 Bft)
09.05.2011 18:12 25,2 C 23,1 C 1,8 UV-I 0,7 C 41 % 55 % 20 % 1023,8 hPa 0,0 l/m 7,6 km/h (2 Bft) 0 min 0 min 7,7 km/h (2 Bft)
09.05.2011 18:14 25,2 C 23,0 C 1,9 UV-I 0,7 C 41 % 55 % 20 % 1023,8 hPa 0,0 l/m 7,2 km/h (2 Bft) 0 min 0 min 9,7 km/h (2 Bft)
09.05.2011 18:16 25,2 C 22,9 C 1,9 UV-I 1,0 C 41 % 55 % 29 % 1023,8 hPa 0,0 l/m 7,2 km/h (2 Bft) 0 min 0 min 4,5 km/h (1 Bft)
09.05.2011 18:18 25,2 C 22,9 C 1,9 UV-I 1,1 C 41 % 55 % 31 % 1023,8 hPa 0,0 l/m 6,4 km/h (2 Bft) 0 min 0 min 7,4 km/h (2 Bft)
09.05.2011 18:20 25,2 C 22,9 C 1,9 UV-I 0,9 C 41 % 55 % 26 % 1023,8 hPa 0,0 l/m 5,6 km/h (1 Bft) 0 min 0 min 3,5 km/h (1 Bft)
09.05.2011 18:22 25,2 C 22,9 C 1,9 UV-I 0,7 C 41 % 55 % 20 % 1023,8 hPa 0,0 l/m 4,8 km/h (1 Bft) 0 min 0 min 5,5 km/h (1 Bft)
09.05.2011 18:24 25,1 C 22,8 C 1,9 UV-I 0,6 C 41 % 55 % 17 % 1023,8 hPa 0,0 l/m 4,8 km/h (1 Bft) 0 min 0 min 6,8 km/h (2 Bft)
09.05.2011 18:26 25,1 C 22,6 C 1,9 UV-I 0,5 C 41 % 55 % 14 % 1023,7 hPa 0,0 l/m 4,4 km/h (1 Bft) 0 min 0 min 0,0 km/h (0 Bft)
09.05.2011 18:28 25,1 C 22,5 C 1,5 UV-I 0,3 C 41 % 55 % 9 % 1023,7 hPa 0,0 l/m 5,6 km/h (1 Bft) 0 min 0 min 10,3 km/h (2 Bft)
09.05.2011 18:30 25,1 C 22,4 C 1,5 UV-I 0,2 C 41 % 55 % 6 % 1023,7 hPa 0,0 l/m 5,6 km/h (1 Bft) 0 min 0 min 5,5 km/h (1 Bft)
09.05.2011 18:32 25,1 C 22,4 C 1,5 UV-I 0,0 C 41 % 56 % 0 % 1023,7 hPa 0,0 l/m 6,0 km/h (2 Bft) 0 min 0 min 3,5 km/h (1 Bft)
09.05.2011 18:34 25,1 C 22,4 C 1,5 UV-I 0,0 C 41 % 57 % 0 % 1023,7 hPa 0,0 l/m 6,0 km/h (2 Bft) 0 min 0 min 4,2 km/h (1 Bft)
09.05.2011 18:36 25,1 C 22,3 C 1,5 UV-I 0,0 C 41 % 58 % 0 % 1023,7 hPa 0,0 l/m 6,4 km/h (2 Bft) 0 min 0 min 13,2 km/h (3 Bft)
09.05.2011 18:38 25,1 C 22,2 C 1,4 UV-I 0,0 C 41 % 59 % 0 % 1023,7 hPa 0,0 l/m 7,2 km/h (2 Bft) 0 min 0 min 3,9 km/h (1 Bft)
09.05.2011 18:40 25,0 C 22,0 C 1,4 UV-I 0,0 C 41 % 59 % 0 % 1023,7 hPa 0,0 l/m 6,4 km/h (2 Bft) 0 min 0 min 0,0 km/h (0 Bft)
09.05.2011 18:42 25,0 C 22,1 C 1,4 UV-I 0,0 C 41 % 59 % 0 % 1023,7 hPa 0,0 l/m 7,2 km/h (2 Bft) 0 min 0 min 10,3 km/h (2 Bft)
09.05.2011 18:44 25,0 C 21,9 C 1,3 UV-I 0,0 C 41 % 60 % 0 % 1023,7 hPa 0,0 l/m 6,8 km/h (2 Bft) 0 min 0 min 5,5 km/h (1 Bft)
09.05.2011 18:46 25,0 C 21,9 C 1,3 UV-I 0,0 C 42 % 60 % 0 % 1024,0 hPa 0,0 l/m 6,4 km/h (2 Bft) 0 min 0 min 0,0 km/h (0 Bft)
09.05.2011 18:48 25,0 C 21,8 C 1,3 UV-I 0,0 C 42 % 61 % 0 % 1024,0 hPa 0,0 l/m 4,0 km/h (1 Bft) 0 min 0 min 4,8 km/h (1 Bft)
09.05.2011 18:50 25,0 C 21,9 C 1,3 UV-I 0,0 C 42 % 61 % 0 % 1024,0 hPa 0,0 l/m 3,6 km/h (1 Bft) 0 min 0 min 3,9 km/h (1 Bft)
09.05.2011 18:52 25,0 C 21,9 C 1,3 UV-I 0,0 C 42 % 62 % 0 % 1024,0 hPa 0,0 l/m 3,6 km/h (1 Bft) 0 min 0 min 10,0 km/h (2 Bft)
09.05.2011 18:54 25,0 C 21,7 C 1,2 UV-I 0,0 C 42 % 62 % 0 % 1024,0 hPa 0,0 l/m 4,0 km/h (1 Bft) 0 min 0 min 15,4 km/h (3 Bft)
09.05.2011 18:56 25,0 C 21,6 C 1,2 UV-I 0,0 C 42 % 62 % 0 % 1024,0 hPa 0,0 l/m 4,0 km/h (1 Bft) 0 min 0 min 9,3 km/h (2 Bft)
09.05.2011 18:58 24,9 C 21,7 C 1,2 UV-I 0,0 C 42 % 62 % 0 % 1024,0 hPa 0,0 l/m 5,6 km/h (1 Bft) 0 min 0 min 8,0 km/h (2 Bft)
09.05.2011 19:00 24,9 C 21,5 C 1,2 UV-I 0,0 C 42 % 62 % 0 % 1024,0 hPa 0,0 l/m 6,4 km/h (2 Bft) 0 min 0 min 5,8 km/h (2 Bft)
09.05.2011 19:02 24,9 C 21,5 C 1,2 UV-I 0,0 C 42 % 62 % 0 % 1024,0 hPa 0,0 l/m 6,4 km/h (2 Bft) 0 min 0 min 0,0 km/h (0 Bft)
09.05.2011 19:04 24,9 C 21,5 C 1,1 UV-I 0,0 C 42 % 62 % 0 % 1024,0 hPa 0,0 l/m 5,6 km/h (1 Bft) 0 min 0 min 0,0 km/h (0 Bft)
09.05.2011 19:06 24,9 C 21,5 C 1,1 UV-I 0,0 C 42 % 62 % 0 % 1023,3 hPa 0,0 l/m 4,8 km/h (1 Bft) 0 min 0 min 3,2 km/h (1 Bft)
09.05.2011 19:08 24,9 C 21,5 C 1,0 UV-I 0,0 C 42 % 62 % 0 % 1023,3 hPa 0,0 l/m 4,4 km/h (1 Bft) 0 min 0 min 3,5 km/h (1 Bft)
09.05.2011 19:10 24,8 C 21,3 C 1,0 UV-I 0,0 C 42 % 62 % 0 % 1023,3 hPa 0,0 l/m 3,2 km/h (1 Bft) 0 min 0 min 0,0 km/h (0 Bft)
09.05.2011 19:12 24,8 C 21,3 C 1,0 UV-I 0,0 C 42 % 62 % 0 % 1023,3 hPa 0,0 l/m 2,4 km/h (1 Bft) 0 min 0 min 0,0 km/h (0 Bft)
09.05.2011 19:14 24,8 C 21,3 C 1,1 UV-I 0,0 C 42 % 62 % 0 % 1023,3 hPa 0,0 l/m 3,2 km/h (1 Bft) 0 min 0 min 6,4 km/h (2 Bft)
09.05.2011 19:16 24,9 C 21,2 C 1,1 UV-I 0,1 C 42 % 63 % 3 % 1023,3 hPa 0,0 l/m 3,2 km/h (1 Bft) 0 min 0 min 0,0 km/h (0 Bft)
09.05.2011 19:18 24,8 C 21,2 C 1,1 UV-I 0,0 C 43 % 63 % 0 % 1023,3 hPa 0,0 l/m 3,6 km/h (1 Bft) 0 min 0 min 6,4 km/h (2 Bft)
09.05.2011 19:20 24,8 C 21,2 C 1,1 UV-I 0,0 C 43 % 63 % 0 % 1023,3 hPa 0,0 l/m 3,6 km/h (1 Bft) 0 min 0 min 9,7 km/h (2 Bft)
09.05.2011 19:22 24,8 C 21,1 C 1,1 UV-I 0,0 C 42 % 64 % 0 % 1023,3 hPa 0,0 l/m 4,4 km/h (1 Bft) 0 min 0 min 3,5 km/h (1 Bft)
09.05.2011 19:24 24,8 C 21,1 C 0,9 UV-I 0,0 C 43 % 63 % 0 % 1023,3 hPa 0,0 l/m 4,4 km/h (1 Bft) 0 min 0 min 0,0 km/h (0 Bft)
09.05.2011 19:26 24,8 C 21,0 C 0,9 UV-I 0,0 C 43 % 64 % 0 % 1024,2 hPa 0,0 l/m 4,8 km/h (1 Bft) 0 min 0 min 4,2 km/h (1 Bft)
09.05.2011 19:28 24,8 C 20,9 C 0,8 UV-I 0,0 C 43 % 64 % 0 % 1024,2 hPa 0,0 l/m 5,6 km/h (1 Bft) 0 min 0 min 12,2 km/h (2 Bft)
09.05.2011 19:30 24,8 C 20,8 C 0,8 UV-I 0,0 C 43 % 65 % 0 % 1024,2 hPa 0,0 l/m 5,6 km/h (1 Bft) 0 min 0 min 6,4 km/h (2 Bft)
09.05.2011 19:32 24,8 C 20,8 C 0,8 UV-I 0,0 C 43 % 65 % 0 % 1024,2 hPa 0,0 l/m 6,0 km/h (2 Bft) 0 min 0 min 7,1 km/h (2 Bft)
09.05.2011 19:34 24,8 C 20,8 C 0,8 UV-I 0,0 C 43 % 65 % 0 % 1024,2 hPa 0,0 l/m 6,8 km/h (2 Bft) 0 min 0 min 8,0 km/h (2 Bft)
09.05.2011 19:36 24,8 C 20,6 C 0,8 UV-I 0,0 C 43 % 65 % 0 % 1024,2 hPa 0,0 l/m 7,2 km/h (2 Bft) 0 min 0 min 11,3 km/h (2 Bft)
09.05.2011 19:38 24,8 C 20,7 C 0,8 UV-I 0,0 C 43 % 65 % 0 % 1024,2 hPa 0,0 l/m 7,6 km/h (2 Bft) 0 min 0 min 16,1 km/h (3 Bft)
09.05.2011 19:40 24,8 C 20,5 C 0,8 UV-I 0,0 C 43 % 65 % 0 % 1024,2 hPa 0,0 l/m 7,6 km/h (2 Bft) 0 min 0 min 9,3 km/h (2 Bft)
09.05.2011 19:42 24,8 C 20,5 C 0,8 UV-I 0,0 C 43 % 65 % 0 % 1024,2 hPa 0,0 l/m 6,0 km/h (2 Bft) 0 min 0 min 0,0 km/h (0 Bft)
09.05.2011 19:44 24,8 C 20,5 C 0,7 UV-I 0,0 C 43 % 66 % 0 % 1024,2 hPa 0,0 l/m 5,6 km/h (1 Bft) 0 min 0 min 10,9 km/h (2 Bft)
09.05.2011 19:46 24,7 C 20,3 C 0,7 UV-I 0,0 C 43 % 66 % 0 % 1023,8 hPa 0,0 l/m 6,0 km/h (2 Bft) 0 min 0 min 13,5 km/h (3 Bft)
09.05.2011 19:48 24,7 C 20,2 C 0,6 UV-I 0,0 C 43 % 67 % 0 % 1023,8 hPa 0,0 l/m 6,8 km/h (2 Bft) 0 min 0 min 5,5 km/h (1 Bft)
09.05.2011 19:50 24,7 C 20,3 C 0,6 UV-I 0,0 C 43 % 67 % 0 % 1023,8 hPa 0,0 l/m 6,0 km/h (2 Bft) 0 min 0 min 9,7 km/h (2 Bft)
09.05.2011 19:52 24,7 C 20,1 C 0,6 UV-I 0,0 C 43 % 68 % 0 % 1023,8 hPa 0,0 l/m 6,4 km/h (2 Bft) 0 min 0 min 6,1 km/h (2 Bft)
09.05.2011 19:54 24,7 C 20,0 C 0,5 UV-I 0,0 C 43 % 68 % 0 % 1023,8 hPa 0,0 l/m 7,2 km/h (2 Bft) 0 min 0 min 6,1 km/h (2 Bft)
09.05.2011 19:56 24,7 C 20,1 C 0,5 UV-I 0,0 C 43 % 68 % 0 % 1023,8 hPa 0,0 l/m 6,0 km/h (2 Bft) 0 min 0 min 6,4 km/h (2 Bft)
09.05.2011 19:58 24,7 C 20,0 C 0,5 UV-I 0,0 C 43 % 68 % 0 % 1023,8 hPa 0,0 l/m 5,2 km/h (1 Bft) 0 min 0 min 5,5 km/h (1 Bft)
09.05.2011 20:00 24,7 C 19,9 C 0,5 UV-I 0,0 C 43 % 68 % 0 % 1023,8 hPa 0,0 l/m 4,4 km/h (1 Bft) 0 min 0 min 4,2 km/h (1 Bft)
09.05.2011 20:02 24,6 C 19,9 C 0,5 UV-I 0,0 C 43 % 69 % 0 % 1023,8 hPa 0,0 l/m 4,8 km/h (1 Bft) 0 min 0 min 8,4 km/h (2 Bft)
09.05.2011 20:04 24,6 C 19,8 C 0,5 UV-I 0,0 C 43 % 69 % 0 % 1023,8 hPa 0,0 l/m 4,8 km/h (1 Bft) 0 min 0 min 6,1 km/h (2 Bft)
09.05.2011 20:06 24,6 C 19,8 C 0,5 UV-I 0,0 C 43 % 69 % 0 % 1023,8 hPa 0,0 l/m 5,6 km/h (1 Bft) 0 min 0 min 14,2 km/h (3 Bft)
09.05.2011 20:08 24,6 C 19,9 C 0,5 UV-I 0,0 C 43 % 69 % 0 % 1023,8 hPa 0,0 l/m 6,8 km/h (2 Bft) 0 min 0 min 6,8 km/h (2 Bft)
09.05.2011 20:10 24,6 C 19,8 C 0,5 UV-I 0,0 C 43 % 69 % 0 % 1023,8 hPa 0,0 l/m 6,8 km/h (2 Bft) 0 min 0 min 5,5 km/h (1 Bft)
09.05.2011 20:12 24,6 C 19,8 C 0,5 UV-I 0,0 C 43 % 69 % 0 % 1023,8 hPa 0,0 l/m 6,4 km/h (2 Bft) 0 min 0 min 3,5 km/h (1 Bft)
09.05.2011 20:14 24,6 C 19,8 C 0,4 UV-I 0,0 C 43 % 69 % 0 % 1023,8 hPa 0,0 l/m 6,0 km/h (2 Bft) 0 min 0 min 0,0 km/h (0 Bft)
09.05.2011 20:16 24,6 C 19,7 C 0,4 UV-I 0,0 C 44 % 69 % 0 % 1023,8 hPa 0,0 l/m 5,2 km/h (1 Bft) 0 min 0 min 3,2 km/h (1 Bft)
09.05.2011 20:18 24,6 C 19,7 C 0,3 UV-I 0,0 C 44 % 69 % 0 % 1023,8 hPa 0,0 l/m 4,0 km/h (1 Bft) 0 min 0 min 3,5 km/h (1 Bft)
09.05.2011 20:20 24,6 C 19,7 C 0,3 UV-I 0,0 C 44 % 69 % 0 % 1023,8 hPa 0,0 l/m 3,6 km/h (1 Bft) 0 min 0 min 5,1 km/h (1 Bft)
09.05.2011 20:22 24,5 C 19,6 C 0,3 UV-I 0,0 C 44 % 69 % 0 % 1023,8 hPa 0,0 l/m 3,6 km/h (1 Bft) 0 min 0 min 5,5 km/h (1 Bft)
09.05.2011 20:24 24,6 C 19,6 C 0,3 UV-I 0,0 C 44 % 69 % 0 % 1023,8 hPa 0,0 l/m 3,6 km/h (1 Bft) 0 min 0 min 4,5 km/h (1 Bft)
09.05.2011 20:26 24,5 C 19,7 C 0,3 UV-I 0,0 C 44 % 69 % 0 % 1023,4 hPa 0,0 l/m 3,6 km/h (1 Bft) 0 min 0 min 5,5 km/h (1 Bft)
09.05.2011 20:28 24,5 C 19,7 C 0,3 UV-I 0,0 C 44 % 69 % 0 % 1023,4 hPa 0,0 l/m 4,0 km/h (1 Bft) 0 min 0 min 0,0 km/h (0 Bft)
09.05.2011 20:30 24,5 C 19,6 C 0,3 UV-I 0,0 C 44 % 69 % 0 % 1023,4 hPa 0,0 l/m 4,0 km/h (1 Bft) 0 min 0 min 4,5 km/h (1 Bft)
09.05.2011 20:32 24,5 C 19,6 C 0,3 UV-I 0,0 C 44 % 70 % 0 % 1023,4 hPa 0,0 l/m 4,0 km/h (1 Bft) 0 min 0 min 5,1 km/h (1 Bft)
09.05.2011 20:34 24,5 C 19,5 C 0,2 UV-I 0,0 C 44 % 70 % 0 % 1023,4 hPa 0,0 l/m 4,4 km/h (1 Bft) 0 min 0 min 12,2 km/h (2 Bft)
09.05.2011 20:36 24,4 C 19,6 C 0,2 UV-I 0,0 C 44 % 70 % 0 % 1023,4 hPa 0,0 l/m 4,8 km/h (1 Bft) 0 min 0 min 6,1 km/h (2 Bft)
09.05.2011 20:38 24,5 C 19,5 C 0,2 UV-I 0,0 C 44 % 70 % 0 % 1023,4 hPa 0,0 l/m 4,8 km/h (1 Bft) 0 min 0 min 7,1 km/h (2 Bft)
09.05.2011 20:40 24,4 C 19,5 C 0,2 UV-I 0,0 C 44 % 70 % 0 % 1023,4 hPa 0,0 l/m 4,4 km/h (1 Bft) 0 min 0 min 0,0 km/h (0 Bft)
09.05.2011 20:42 24,4 C 19,5 C 0,2 UV-I 0,0 C 44 % 70 % 0 % 1023,4 hPa 0,0 l/m 4,0 km/h (1 Bft) 0 min 0 min 3,2 km/h (1 Bft)
09.05.2011 20:44 24,4 C 19,5 C 0,2 UV-I 0,0 C 44 % 70 % 0 % 1023,4 hPa 0,0 l/m 4,0 km/h (1 Bft) 0 min 0 min 7,7 km/h (2 Bft)
09.05.2011 20:46 24,4 C 19,5 C 0,2 UV-I 0,0 C 44 % 71 % 0 % 1024,0 hPa 0,0 l/m 4,0 km/h (1 Bft) 0 min 0 min 11,6 km/h (2 Bft)
09.05.2011 20:48 24,4 C 19,4 C 0,2 UV-I 0,0 C 44 % 71 % 0 % 1024,0 hPa 0,0 l/m 4,0 km/h (1 Bft) 0 min 0 min 4,8 km/h (1 Bft)
09.05.2011 20:50 24,4 C 19,3 C 0,2 UV-I 0,0 C 44 % 71 % 0 % 1024,0 hPa 0,0 l/m 4,8 km/h (1 Bft) 0 min 0 min 8,7 km/h (2 Bft)
09.05.2011 20:52 24,4 C 19,3 C 0,2 UV-I 0,0 C 44 % 71 % 0 % 1024,0 hPa 0,0 l/m 5,6 km/h (1 Bft) 0 min 0 min 6,4 km/h (2 Bft)
09.05.2011 20:54 24,4 C 19,3 C 0,1 UV-I 0,0 C 44 % 72 % 0 % 1024,0 hPa 0,0 l/m 6,4 km/h (2 Bft) 0 min 0 min 5,5 km/h (1 Bft)
09.05.2011 20:56 24,4 C 19,2 C 0,1 UV-I 0,0 C 44 % 72 % 0 % 1024,0 hPa 0,0 l/m 6,0 km/h (2 Bft) 0 min 0 min 3,2 km/h (1 Bft)
09.05.2011 20:58 24,4 C 19,3 C 0,1 UV-I 0,0 C 44 % 72 % 0 % 1024,0 hPa 0,0 l/m 6,0 km/h (2 Bft) 0 min 0 min 7,4 km/h (2 Bft)
09.05.2011 21:00 24,2 C 19,2 C 0,1 UV-I 0,0 C 44 % 72 % 0 % 1024,0 hPa 0,0 l/m 5,6 km/h (1 Bft) 0 min 0 min 0,0 km/h (0 Bft)
09.05.2011 21:02 24,4 C 19,3 C 0,1 UV-I 0,0 C 45 % 72 % 0 % 1024,0 hPa 0,0 l/m 5,6 km/h (1 Bft) 0 min 0 min 6,8 km/h (2 Bft)
09.05.2011 21:04 24,2 C 19,2 C 0,1 UV-I 0,0 C 45 % 72 % 0 % 1024,0 hPa 0,0 l/m 5,6 km/h (1 Bft) 0 min 0 min 8,0 km/h (2 Bft)
09.05.2011 21:06 24,3 C 19,2 C 0,1 UV-I 0,0 C 45 % 72 % 0 % 1023,9 hPa 0,0 l/m 6,0 km/h (2 Bft) 0 min 0 min 6,1 km/h (2 Bft)
09.05.2011 21:08 24,3 C 19,2 C 0,1 UV-I 0,0 C 45 % 72 % 0 % 1023,9 hPa 0,0 l/m 5,6 km/h (1 Bft) 0 min 0 min 0,0 km/h (0 Bft)
09.05.2011 21:10 24,3 C 19,1 C 0,1 UV-I 0,0 C 45 % 73 % 0 % 1023,9 hPa 0,0 l/m 5,6 km/h (1 Bft) 0 min 0 min 6,8 km/h (2 Bft)
09.05.2011 21:12 24,3 C 19,0 C 0,1 UV-I 0,0 C 45 % 73 % 0 % 1023,9 hPa 0,0 l/m 6,0 km/h (2 Bft) 0 min 0 min 7,1 km/h (2 Bft)
09.05.2011 21:14 24,2 C 19,0 C 0,1 UV-I 0,0 C 45 % 73 % 0 % 1023,9 hPa 0,0 l/m 6,0 km/h (2 Bft) 0 min 0 min 7,7 km/h (2 Bft)
09.05.2011 21:16 24,2 C 19,1 C 0,1 UV-I 0,0 C 45 % 74 % 0 % 1023,9 hPa 0,0 l/m 5,6 km/h (1 Bft) 0 min 0 min 4,8 km/h (1 Bft)
09.05.2011 21:18 24,2 C 19,1 C 0,1 UV-I 0,0 C 45 % 74 % 0 % 1023,9 hPa 0,0 l/m 5,2 km/h (1 Bft) 0 min 0 min 0,0 km/h (0 Bft)
09.05.2011 21:20 24,2 C 19,1 C 0,1 UV-I 0,0 C 45 % 74 % 0 % 1023,9 hPa 0,0 l/m 5,2 km/h (1 Bft) 0 min 0 min 5,1 km/h (1 Bft)
09.05.2011 21:22 24,2 C 19,0 C 0,1 UV-I 0,0 C 45 % 75 % 0 % 1023,9 hPa 0,0 l/m 5,2 km/h (1 Bft) 0 min 0 min 7,4 km/h (2 Bft)
09.05.2011 21:24 24,2 C 19,1 C 0,1 UV-I 0,0 C 45 % 75 % 0 % 1023,9 hPa 0,0 l/m 4,8 km/h (1 Bft) 0 min 0 min 4,8 km/h (1 Bft)
09.05.2011 21:26 24,2 C 19,1 C 0,1 UV-I 0,0 C 45 % 75 % 0 % 1024,1 hPa 0,0 l/m 4,8 km/h (1 Bft) 0 min 0 min 5,8 km/h (2 Bft)
09.05.2011 21:28 24,2 C 19,0 C 0,1 UV-I 0,0 C 46 % 75 % 0 % 1024,1 hPa 0,0 l/m 4,8 km/h (1 Bft) 0 min 0 min 7,4 km/h (2 Bft)
09.05.2011 21:30 24,2 C 18,9 C 0,1 UV-I 0,0 C 46 % 75 % 0 % 1024,1 hPa 0,0 l/m 5,6 km/h (1 Bft) 0 min 0 min 7,7 km/h (2 Bft)
09.05.2011 21:32 24,2 C 18,9 C 0,1 UV-I 0,0 C 46 % 75 % 0 % 1024,1 hPa 0,0 l/m 5,6 km/h (1 Bft) 0 min 0 min 9,3 km/h (2 Bft)
09.05.2011 21:34 24,1 C 18,8 C 0,1 UV-I 0,0 C 46 % 75 % 0 % 1024,1 hPa 0,0 l/m 4,8 km/h (1 Bft) 0 min 0 min 4,2 km/h (1 Bft)
09.05.2011 21:36 24,2 C 18,8 C 0,1 UV-I 0,0 C 46 % 75 % 0 % 1024,1 hPa 0,0 l/m 4,4 km/h (1 Bft) 0 min 0 min 4,8 km/h (1 Bft)
09.05.2011 21:38 24,1 C 18,8 C 0,1 UV-I 0,0 C 46 % 75 % 0 % 1024,1 hPa 0,0 l/m 4,0 km/h (1 Bft) 0 min 0 min 0,0 km/h (0 Bft)
09.05.2011 21:40 24,1 C 18,9 C 0,1 UV-I 0,0 C 46 % 75 % 0 % 1024,1 hPa 0,0 l/m 3,2 km/h (1 Bft) 0 min 0 min 4,2 km/h (1 Bft)
09.05.2011 21:42 24,1 C 18,8 C 0,1 UV-I 0,0 C 46 % 75 % 0 % 1024,1 hPa 0,0 l/m 3,6 km/h (1 Bft) 0 min 0 min 5,1 km/h (1 Bft)
09.05.2011 21:44 24,1 C 18,8 C 0,1 UV-I 0,0 C 46 % 75 % 0 % 1024,1 hPa 0,0 l/m 2,8 km/h (1 Bft) 0 min 0 min 0,0 km/h (0 Bft)
09.05.2011 21:46 24,1 C 18,7 C 0,1 UV-I 0,0 C 46 % 75 % 0 % 1024,7 hPa 0,0 l/m 2,4 km/h (1 Bft) 0 min 0 min 5,5 km/h (1 Bft)
09.05.2011 21:48 24,1 C 18,7 C 0,1 UV-I 0,0 C 46 % 75 % 0 % 1024,7 hPa 0,0 l/m 2,0 km/h (1 Bft) 0 min 0 min 0,0 km/h (0 Bft)
09.05.2011 21:50 24,0 C 18,6 C 0,1 UV-I 0,0 C 46 % 75 % 0 % 1024,7 hPa 0,0 l/m 2,0 km/h (1 Bft) 0 min 0 min 0,0 km/h (0 Bft)
09.05.2011 21:52 24,0 C 18,7 C 0,1 UV-I 0,0 C 46 % 75 % 0 % 1024,7 hPa 0,0 l/m 1,6 km/h (1 Bft) 0 min 0 min 3,9 km/h (1 Bft)
09.05.2011 21:54 24,0 C 18,6 C 0,1 UV-I 0,0 C 46 % 75 % 0 % 1024,7 hPa 0,0 l/m 1,2 km/h (1 Bft) 0 min 0 min 0,0 km/h (0 Bft)
09.05.2011 21:56 24,0 C 18,5 C 0,1 UV-I 0,0 C 47 % 74 % 0 % 1024,7 hPa 0,0 l/m 2,0 km/h (1 Bft) 0 min 0 min 7,1 km/h (2 Bft)
09.05.2011 21:58 24,0 C 18,5 C 0,1 UV-I 0,0 C 47 % 74 % 0 % 1024,7 hPa 0,0 l/m 2,4 km/h (1 Bft) 0 min 0 min 4,5 km/h (1 Bft)
09.05.2011 22:00 24,0 C 18,4 C 0,1 UV-I 0,0 C 48 % 74 % 0 % 1024,7 hPa 0,0 l/m 3,2 km/h (1 Bft) 0 min 0 min 0,0 km/h (0 Bft)
09.05.2011 22:02 24,0 C 18,5 C 0,1 UV-I 0,0 C 48 % 74 % 0 % 1024,7 hPa 0,0 l/m 4,0 km/h (1 Bft) 0 min 0 min 5,8 km/h (2 Bft)
09.05.2011 22:04 24,0 C 18,4 C 0,1 UV-I 0,0 C 48 % 74 % 0 % 1024,7 hPa 0,0 l/m 4,0 km/h (1 Bft) 0 min 0 min 5,5 km/h (1 Bft)
09.05.2011 22:06 24,0 C 18,4 C 0,1 UV-I 0,0 C 48 % 74 % 0 % 1024,5 hPa 0,0 l/m 4,8 km/h (1 Bft) 0 min 0 min 6,8 km/h (2 Bft)
09.05.2011 22:08 24,0 C 18,3 C 0,1 UV-I 0,0 C 48 % 74 % 0 % 1024,5 hPa 0,0 l/m 4,8 km/h (1 Bft) 0 min 0 min 5,8 km/h (2 Bft)
09.05.2011 22:10 24,0 C 18,2 C 0,1 UV-I 0,0 C 48 % 74 % 0 % 1024,5 hPa 0,0 l/m 4,4 km/h (1 Bft) 0 min 0 min 3,9 km/h (1 Bft)
09.05.2011 22:12 23,9 C 18,3 C 0,1 UV-I 0,0 C 48 % 74 % 0 % 1024,5 hPa 0,0 l/m 4,8 km/h (1 Bft) 0 min 0 min 4,8 km/h (1 Bft)
09.05.2011 22:14 23,9 C 18,2 C 0,1 UV-I 0,0 C 48 % 75 % 0 % 1024,5 hPa 0,0 l/m 5,6 km/h (1 Bft) 0 min 0 min 3,2 km/h (1 Bft)
09.05.2011 22:16 23,9 C 18,1 C 0,1 UV-I 0,0 C 48 % 75 % 0 % 1024,5 hPa 0,0 l/m 4,8 km/h (1 Bft) 0 min 0 min 5,8 km/h (2 Bft)
09.05.2011 22:18 23,9 C 18,1 C 0,1 UV-I 0,0 C 48 % 75 % 0 % 1024,5 hPa 0,0 l/m 4,8 km/h (1 Bft) 0 min 0 min 5,8 km/h (2 Bft)
09.05.2011 22:20 23,9 C 18,0 C 0,1 UV-I 0,0 C 49 % 75 % 0 % 1024,5 hPa 0,0 l/m 4,0 km/h (1 Bft) 0 min 0 min 0,0 km/h (0 Bft)
09.05.2011 22:22 23,9 C 18,0 C 0,1 UV-I 0,0 C 49 % 75 % 0 % 1024,5 hPa 0,0 l/m 3,6 km/h (1 Bft) 0 min 0 min 3,2 km/h (1 Bft)
09.05.2011 22:24 23,9 C 18,1 C 0,1 UV-I 0,0 C 49 % 75 % 0 % 1024,5 hPa 0,0 l/m 2,4 km/h (1 Bft) 0 min 0 min 0,0 km/h (0 Bft)
09.05.2011 22:25 23,9 C 18,0 C 0,1 UV-I 0,0 C 49 % 75 % 0 % 1024,6 hPa 0,0 l/m 2,0 km/h (1 Bft) 0 min 0 min 0,0 km/h (0 Bft)
09.05.2011 22:30 23,8 C 17,9 C 0,1 UV-I 0,0 C 48 % 75 % 0 % 1024,6 hPa 0,0 l/m 0,8 km/h (0 Bft) 0 min 0 min 0,0 km/h (0 Bft)
09.05.2011 22:32 23,8 C 17,9 C 0,1 UV-I 0,0 C 48 % 75 % 0 % 1024,6 hPa 0,0 l/m 0,4 km/h (0 Bft) 0 min 0 min 0,0 km/h (0 Bft)
09.05.2011 22:34 23,8 C 17,8 C 0,1 UV-I 0,0 C 48 % 76 % 0 % 1024,6 hPa 0,0 l/m 0,4 km/h (0 Bft) 0 min 0 min 6,1 km/h (2 Bft)
09.05.2011 22:36 23,8 C 17,9 C 0,1 UV-I 0,0 C 48 % 76 % 0 % 1024,6 hPa 0,0 l/m 0,8 km/h (0 Bft) 0 min 0 min 0,0 km/h (0 Bft)
09.05.2011 22:38 23,8 C 17,8 C 0,0 UV-I 0,0 C 48 % 76 % 0 % 1024,6 hPa 0,0 l/m 1,2 km/h (1 Bft) 0 min 0 min 0,0 km/h (0 Bft)
09.05.2011 22:40 23,8 C 17,8 C 0,0 UV-I 0,0 C 48 % 76 % 0 % 1024,6 hPa 0,0 l/m 1,6 km/h (1 Bft) 0 min 0 min 5,8 km/h (2 Bft)
09.05.2011 22:42 23,8 C 17,7 C 0,0 UV-I 0,0 C 48 % 76 % 0 % 1024,6 hPa 0,0 l/m 1,6 km/h (1 Bft) 0 min 0 min 0,0 km/h (0 Bft)
09.05.2011 22:44 23,7 C 17,7 C 0,1 UV-I 0,0 C 48 % 76 % 0 % 1024,6 hPa 0,0 l/m 1,6 km/h (1 Bft) 0 min 0 min 0,0 km/h (0 Bft)
09.05.2011 22:46 23,7 C 17,7 C 0,1 UV-I 0,0 C 49 % 76 % 0 % 1025,0 hPa 0,0 l/m 0,8 km/h (0 Bft) 0 min 0 min 0,0 km/h (0 Bft)
09.05.2011 22:48 23,8 C 17,6 C 0,1 UV-I 0,0 C 48 % 76 % 0 % 1025,0 hPa 0,0 l/m 0,4 km/h (0 Bft) 0 min 0 min 0,0 km/h (0 Bft)
09.05.2011 22:50 23,7 C 17,6 C 0,1 UV-I 0,0 C 48 % 76 % 0 % 1025,0 hPa 0,0 l/m 0,4 km/h (0 Bft) 0 min 0 min 0,0 km/h (0 Bft)
09.05.2011 22:52 23,7 C 17,7 C 0,1 UV-I 0,0 C 48 % 76 % 0 % 1025,0 hPa 0,0 l/m 0,0 km/h (0 Bft) 0 min 0 min 0,0 km/h (0 Bft)
09.05.2011 22:54 23,7 C 17,6 C 0,1 UV-I 0,0 C 49 % 76 % 0 % 1025,0 hPa 0,0 l/m 0,0 km/h (0 Bft) 0 min 0 min 0,0 km/h (0 Bft)
09.05.2011 22:56 23,7 C 17,5 C 0,1 UV-I 0,0 C 49 % 76 % 0 % 1025,0 hPa 0,0 l/m 0,0 km/h (0 Bft) 0 min 0 min 4,5 km/h (1 Bft)
09.05.2011 22:58 23,7 C 17,5 C 0,1 UV-I 0,0 C 49 % 76 % 0 % 1025,0 hPa 0,0 l/m 0,4 km/h (0 Bft) 0 min 0 min 0,0 km/h (0 Bft)
09.05.2011 23:00 23,7 C 17,5 C 0,1 UV-I 0,0 C 49 % 76 % 0 % 1025,0 hPa 0,0 l/m 0,4 km/h (0 Bft) 0 min 0 min 0,0 km/h (0 Bft)
09.05.2011 23:02 23,6 C 17,4 C 0,1 UV-I 0,0 C 49 % 77 % 0 % 1025,0 hPa 0,0 l/m 0,4 km/h (0 Bft) 0 min 0 min 0,0 km/h (0 Bft)
09.05.2011 23:04 23,6 C 17,5 C 0,1 UV-I 0,0 C 49 % 77 % 0 % 1025,0 hPa 0,0 l/m 0,4 km/h (0 Bft) 0 min 0 min 0,0 km/h (0 Bft)
09.05.2011 23:06 23,6 C 17,3 C 0,1 UV-I 0,0 C 49 % 77 % 0 % 1025,0 hPa 0,0 l/m 0,4 km/h (0 Bft) 0 min 0 min 4,2 km/h (1 Bft)
09.05.2011 23:08 23,6 C 17,3 C 0,1 UV-I 0,0 C 49 % 77 % 0 % 1025,0 hPa 0,0 l/m 0,4 km/h (0 Bft) 0 min 0 min 5,1 km/h (1 Bft)
09.05.2011 23:10 23,6 C 17,3 C 0,1 UV-I 0,0 C 49 % 77 % 0 % 1025,0 hPa 0,0 l/m 1,2 km/h (1 Bft) 0 min 0 min 6,1 km/h (2 Bft)
09.05.2011 23:12 23,6 C 17,2 C 0,1 UV-I 0,0 C 49 % 78 % 0 % 1025,0 hPa 0,0 l/m 2,4 km/h (1 Bft) 0 min 0 min 5,1 km/h (1 Bft)
09.05.2011 23:14 23,6 C 17,2 C 0,1 UV-I 0,0 C 49 % 77 % 0 % 1025,0 hPa 0,0 l/m 2,8 km/h (1 Bft) 0 min 0 min 0,0 km/h (0 Bft)
09.05.2011 23:16 23,6 C 17,3 C 0,1 UV-I 0,0 C 49 % 77 % 0 % 1025,0 hPa 0,0 l/m 2,8 km/h (1 Bft) 0 min 0 min 0,0 km/h (0 Bft)
09.05.2011 23:18 23,6 C 17,3 C 0,0 UV-I 0,0 C 49 % 78 % 0 % 1025,0 hPa 0,0 l/m 2,4 km/h (1 Bft) 0 min 0 min 0,0 km/h (0 Bft)
09.05.2011 23:20 23,6 C 17,1 C 0,0 UV-I 0,0 C 49 % 78 % 0 % 1025,0 hPa 0,0 l/m 1,6 km/h (1 Bft) 0 min 0 min 0,0 km/h (0 Bft)
09.05.2011 23:22 23,6 C 17,1 C 0,0 UV-I 0,0 C 49 % 78 % 0 % 1025,0 hPa 0,0 l/m 0,4 km/h (0 Bft) 0 min 0 min 0,0 km/h (0 Bft)
09.05.2011 23:24 23,6 C 17,1 C 0,1 UV-I 0,0 C 49 % 78 % 0 % 1025,0 hPa 0,0 l/m 0,0 km/h (0 Bft) 0 min 0 min 0,0 km/h (0 Bft)
09.05.2011 23:26 23,6 C 17,1 C 0,1 UV-I 0,0 C 49 % 78 % 0 % 1024,9 hPa 0,0 l/m 0,0 km/h (0 Bft) 0 min 0 min 0,0 km/h (0 Bft)
09.05.2011 23:28 23,6 C 17,0 C 0,1 UV-I 0,0 C 49 % 78 % 0 % 1024,9 hPa 0,0 l/m 0,0 km/h (0 Bft) 0 min 0 min 0,0 km/h (0 Bft)
09.05.2011 23:30 23,6 C 16,9 C 0,1 UV-I 0,0 C 49 % 78 % 0 % 1024,9 hPa 0,0 l/m 0,0 km/h (0 Bft) 0 min 0 min 0,0 km/h (0 Bft)
09.05.2011 23:32 23,6 C 16,9 C 0,1 UV-I 0,0 C 49 % 78 % 0 % 1024,9 hPa 0,0 l/m 0,0 km/h (0 Bft) 0 min 0 min 0,0 km/h (0 Bft)
09.05.2011 23:34 23,5 C 16,8 C 0,0 UV-I 0,0 C 49 % 78 % 0 % 1024,9 hPa 0,0 l/m 0,0 km/h (0 Bft) 0 min 0 min 0,0 km/h (0 Bft)
09.05.2011 23:36 23,5 C 16,8 C 0,0 UV-I 0,0 C 49 % 78 % 0 % 1024,9 hPa 0,0 l/m 0,0 km/h (0 Bft) 0 min 0 min 0,0 km/h (0 Bft)
09.05.2011 23:38 23,5 C 16,8 C 0,1 UV-I 0,0 C 49 % 78 % 0 % 1024,9 hPa 0,0 l/m 0,0 km/h (0 Bft) 0 min 0 min 0,0 km/h (0 Bft)
09.05.2011 23:40 23,5 C 16,8 C 0,1 UV-I 0,0 C 49 % 78 % 0 % 1024,9 hPa 0,0 l/m 0,0 km/h (0 Bft) 0 min 0 min 0,0 km/h (0 Bft)
09.05.2011 23:42 23,5 C 16,7 C 0,1 UV-I 0,0 C 49 % 78 % 0 % 1024,9 hPa 0,0 l/m 0,4 km/h (0 Bft) 0 min 0 min 3,9 km/h (1 Bft)
09.05.2011 23:44 23,5 C 16,7 C 0,1 UV-I 0,0 C 49 % 78 % 0 % 1024,9 hPa 0,0 l/m 0,4 km/h (0 Bft) 0 min 0 min 0,0 km/h (0 Bft)
09.05.2011 23:46 23,5 C 16,7 C 0,1 UV-I 0,0 C 49 % 78 % 0 % 1024,9 hPa 0,0 l/m 0,4 km/h (0 Bft) 0 min 0 min 0,0 km/h (0 Bft)
09.05.2011 23:48 23,5 C 16,6 C 0,1 UV-I 0,0 C 49 % 78 % 0 % 1024,9 hPa 0,0 l/m 0,4 km/h (0 Bft) 0 min 0 min 0,0 km/h (0 Bft)
09.05.2011 23:50 23,5 C 16,7 C 0,1 UV-I 0,0 C 49 % 78 % 0 % 1024,9 hPa 0,0 l/m 0,4 km/h (0 Bft) 0 min 0 min 0,0 km/h (0 Bft)
09.05.2011 23:52 23,5 C 16,5 C 0,1 UV-I 0,0 C 49 % 78 % 0 % 1024,9 hPa 0,0 l/m 0,4 km/h (0 Bft) 0 min 0 min 0,0 km/h (0 Bft)
09.05.2011 23:54 23,5 C 16,5 C 0,1 UV-I 0,0 C 49 % 78 % 0 % 1024,9 hPa 0,0 l/m 0,0 km/h (0 Bft) 0 min 0 min 0,0 km/h (0 Bft)
09.05.2011 23:56 23,4 C 16,4 C 0,1 UV-I 0,0 C 49 % 78 % 0 % 1024,9 hPa 0,0 l/m 0,0 km/h (0 Bft) 0 min 0 min 0,0 km/h (0 Bft)
09.05.2011 23:58 23,4 C 16,4 C 0,1 UV-I 0,0 C 49 % 79 % 0 % 1024,9 hPa 0,0 l/m 0,0 km/h (0 Bft) 0 min 0 min 0,0 km/h (0 Bft)
_ Min-Zeit 05:05 23:56 01:00 00:00 00:10 15:00 00:00 00:05 - 00:25 - - 00:15
Minimum _ 22,7 C 16,4 C 0,0 UV-I 0,0 C 38 % 28 % 0 % 1019,9 hPa - 0,0 km/h (0 Bft) - - 0,0 km/h (0 Bft)
_ Max-Zeit 16:10 14:58 14:54 14:40 22:20 23:58 10:24 22:46 00:00 08:20 09:52 00:00 06:36
Maximum _ 25,8 C 27,9 C 8,7 UV-I 6,7 C 49 % 79 % 100 % 1025,0 hPa 0,0 l/m 15,3 km/h
N-NO (3 Bft)
2 min 0 min 36,7 km/h
O-NO (5 Bft)
Durchschnitt _ 23,8 C 20,9 C 2,2 UV-I 1,6 C 41 % 49 % 33 % 1022,8 hPa #0,0 l/m 6,3 km/h (2 Bft) #6:58 h #0 min. 7,1 km/h (2 Bft)
© 2012 W. Hausmann